ECMWFFLT2_250_rhum_075.txt.gz
RH
68 69 69 67 63 59 56 53 50 48 46 45 45 46 47 48 49 49 48 48 47 46 46 45 44 43 43 42 40 38 35 32 29 27 26 25 24 23 22 21 20 20 19 19 19 20 20 21 21 20 19 18
78 72 66 60 55 53 52 52 52 51 51 51 51 53 54 54 54 53 52 51 50 49 48 47 46 45 43 41 37 34 30 27 24 22 21 19 18 18 17 17 16 16 16 16 16 17 17 17 18 18 18 17
77 69 63 60 60 60 59 58 58 57 57 57 57 59 59 59 58 56 54 52 51 49 48 46 43 40 36 33 30 27 24 21 19 17 15 13 12 11 11 10 10 10 11 11 12 12 13 13 14 14 14 15
74 70 67 65 64 62 61 60 61 61 61 62 62 63 62 61 58 56 54 51 49 46 42 38 34 30 27 24 22 20 18 16 14 13 12 11 10 9 9 8 7 7 7 8 8 8 9 9 9 10 10 11
70 67 64 63 62 62 62 63 64 64 65 64 64 64 62 59 56 54 50 46 41 36 31 28 24 21 19 17 17 17 16 15 14 13 13 12 12 12 11 10 9 9 8 8 7 7 8 8 8 8 8 8
65 63 61 62 63 64 65 66 66 66 66 64 63 61 59 55 51 46 40 35 30 26 23 20 19 17 17 17 17 18 17 16 15 15 15 15 15 15 14 13 12 11 11 10 9 9 8 8 8 8 8 8
63 62 63 64 66 67 67 66 65 64 63 61 60 57 52 47 41 35 29 26 23 21 20 20 20 20 20 19 19 19 18 16 16 16 16 17 17 16 16 15 15 14 13 12 11 11 10 9 9 9 9 9
65 66 67 69 69 68 67 65 63 62 61 59 54 48 41 36 31 27 24 23 23 23 23 23 23 23 22 21 21 20 19 18 17 17 17 18 17 17 17 16 16 15 14 13 13 12 11 10 10 10 9 9
70 71 72 72 70 68 66 65 64 62 58 50 43 37 32 28 26 25 25 26 26 26 26 26 25 24 24 23 22 21 21 20 19 19 18 18 18 18 17 17 16 15 14 13 13 13 12 11 10 10 9 9
74 75 74 72 70 69 68 65 61 54 46 39 34 30 28 28 28 29 30 30 29 29 29 28 26 26 25 25 25 24 24 23 21 20 19 18 17 17 17 16 16 15 14 13 13 12 12 11 10 10 9 9
77 76 74 73 71 69 64 57 50 44 39 36 33 31 33 35 36 35 35 35 34 33 32 30 29 29 29 29 28 27 26 24 22 21 19 18 17 16 15 15 15 14 14 13 12 12 11 11 10 10 10 9
78 76 74 73 70 63 56 51 47 45 42 38 38 41 43 43 42 41 40 40 39 37 36 34 33 33 33 32 31 29 27 24 22 21 19 18 17 16 15 14 14 14 13 13 12 11 11 11 11 11 11 10
78 76 75 71 66 61 57 56 54 50 46 45 48 49 50 49 47 46 45 44 43 42 40 38 37 37 36 34 32 29 27 24 22 20 19 18 17 16 15 14 14 13 13 13 12 12 12 12 12 12 12 11
79 77 74 70 66 64 62 60 56 51 51 52 54 54 54 54 52 51 50 49 47 45 44 43 41 40 38 35 32 30 26 23 21 20 18 17 16 16 16 15 14 13 14 14 14 13 13 13 13 13 13 12
80 77 74 71 68 66 63 60 56 55 57 58 58 58 59 58 57 56 55 54 51 49 47 45 43 41 38 35 32 29 26 23 21 19 18 17 16 16 17 16 15 14 14 15 15 15 14 14 13 13 13 13
76 74 72 69 67 64 62 60 60 61 63 63 63 62 61 60 60 59 58 57 54 51 49 47 45 42 38 35 32 28 25 22 20 19 18 17 17 17 17 17 16 15 15 16 16 16 16 15 14 14 13 12
73 72 71 69 68 67 67 67 68 69 69 68 67 65 64 63 62 60 58 57 55 52 51 49 46 42 38 34 30 27 23 22 20 20 19 18 18 18 18 18 17 16 16 16 16 17 17 17 16 15 14 13
80 79 77 77 77 78 78 77 76 75 74 72 71 69 67 66 64 61 59 58 57 55 53 50 47 42 38 33 28 25 23 22 21 20 20 19 19 19 20 20 20 19 18 18 17 18 18 19 18 17 17 16
90 88 87 87 87 87 86 85 82 80 79 76 74 72 70 69 66 63 63 62 60 58 54 51 46 41 35 30 26 25 24 23 21 21 20 20 20 21 22 22 23 22 21 20 19 19 20 21 21 21 22 20
90 87 86 86 86 87 88 87 84 82 81 78 76 75 72 69 67 67 68 66 62 59 54 49 44 37 31 27 26 25 23 20 19 18 19 19 20 22 23 25 26 26 25 24 22 22 22 23 24 25 26 22
84 82 80 79 79 80 82 84 84 82 82 81 78 75 71 69 71 72 71 67 62 58 53 47 40 33 29 27 26 23 20 19 17 17 18 19 19 21 24 26 27 28 29 29 27 25 24 25 28 29 28 22
85 83 80 77 74 74 76 79 81 82 81 80 77 75 74 76 77 75 71 65 59 55 50 42 35 31 29 27 25 22 21 20 18 18 19 20 20 20 23 26 28 30 32 33 33 30 28 28 31 33 28 23
89 86 81 78 75 75 77 80 82 82 82 81 80 81 83 83 81 77 71 64 58 52 44 37 33 31 29 26 24 23 23 22 20 19 19 20 21 19 19 22 25 30 34 36 37 35 33 32 34 33 29 25
86 82 80 80 81 82 83 84 85 85 86 87 88 88 87 84 80 76 71 63 54 46 40 36 34 31 29 26 24 24 24 22 22 21 20 20 19 17 16 17 20 26 34 38 40 39 37 36 36 33 29 29
86 87 88 90 91 93 93 92 92 92 92 92 91 87 84 82 78 74 66 55 47 41 38 36 33 31 29 27 26 25 24 23 22 20 20 19 18 17 16 16 17 21 30 39 43 42 40 38 37 33 30 30
92 94 95 97 98 98 97 96 96 95 94 90 86 82 79 76 71 63 54 46 42 39 36 33 32 31 29 28 27 27 27 26 25 22 20 19 18 17 17 18 18 19 25 35 44 45 42 39 37 34 31 31
90 92 93 94 94 94 93 93 92 90 86 83 79 73 67 60 53 47 42 39 37 34 32 31 30 30 28 27 27 27 29 29 29 28 24 21 19 19 19 19 20 20 22 31 42 46 43 39 36 34 33 33
74 74 73 72 71 70 71 71 69 66 62 59 56 52 46 41 37 35 34 32 30 29 30 29 29 29 28 27 27 27 27 29 30 31 30 28 24 21 20 20 21 21 22 27 35 43 43 38 36 36 34 33
46 45 44 43 41 40 39 38 38 37 36 34 33 32 31 31 31 30 29 28 28 29 29 29 28 28 28 27 27 26 26 27 28 29 30 31 30 28 24 22 21 22 23 25 28 36 40 36 34 37 38 36
39 38 38 37 37 36 35 34 33 32 32 31 31 31 31 31 31 30 31 31 32 32 32 32 32 32 32 31 30 29 28 27 27 26 27 28 30 31 31 28 25 24 23 23 24 29 34 34 31 34 39 41
45 45 44 44 44 44 44 44 43 42 40 38 38 38 37 37 36 36 36 37 37 37 37 37 37 37 37 37 37 36 35 33 32 31 30 29 29 29 31 32 31 30 27 25 24 25 28 30 29 29 35 41

ECMWFFLT2_250_rhum_078.txt.gz
RH
42 42 45 47 49 50 51 51 52 54 55 56 58 59 59 59 59 61 62 62 61 56 50 46 43 42 40 39 37 35 34 33 32 31 30 30 29 28 27 25 24 23 23 22 21 20 19 18 17 16 16 16
46 49 52 54 56 57 59 62 65 68 70 71 71 70 68 67 66 66 65 63 60 56 52 49 47 45 43 41 40 38 36 35 35 34 34 33 32 31 30 28 27 26 24 24 23 21 20 18 17 16 15 15
52 55 59 62 65 68 71 74 75 76 76 76 73 71 68 66 65 63 61 58 56 54 52 51 49 47 45 43 41 40 39 38 38 37 36 36 35 34 34 32 31 29 26 25 22 20 18 16 15 14 13 12
62 67 71 73 74 74 74 72 71 70 68 67 65 63 62 60 59 58 57 56 55 54 53 51 49 48 46 45 44 44 43 42 41 41 40 39 39 38 37 35 32 28 25 22 19 16 14 13 11 10 9 8
75 79 80 77 74 71 69 68 66 64 63 61 60 59 58 58 58 58 57 57 56 55 54 53 51 50 49 48 48 47 46 45 44 44 44 43 42 39 36 32 28 23 20 17 14 12 11 10 9 8 7 6
86 85 81 76 74 72 70 69 67 65 64 62 62 62 61 61 61 60 60 59 59 58 57 56 54 53 52 51 50 49 48 47 47 46 46 43 39 35 30 26 21 18 15 13 11 10 10 9 9 8 7 6
86 84 80 77 76 73 71 69 67 66 65 65 65 65 64 64 64 64 63 63 62 61 60 58 57 56 54 53 51 50 49 48 47 45 42 37 32 27 23 20 17 15 14 13 11 11 10 10 10 9 8 8
83 82 80 78 76 74 73 71 70 69 68 68 67 67 67 67 67 66 66 66 65 63 62 60 59 57 55 53 51 50 49 47 43 38 33 28 25 21 19 17 16 15 14 13 13 12 11 10 10 9 9 9
84 83 81 79 78 77 76 75 73 72 71 71 70 70 69 69 68 68 67 67 66 65 63 61 59 56 54 52 50 48 44 39 34 30 26 23 21 19 19 18 17 16 15 14 13 12 11 11 10 10 10 10
86 83 82 81 80 80 79 78 77 76 75 75 74 73 72 71 71 70 69 67 66 64 62 59 56 54 51 49 45 40 34 30 27 25 23 22 21 22 21 21 19 18 16 15 13 12 12 12 11 11 11 11
84 83 83 83 83 83 83 82 81 80 80 79 78 77 76 74 72 70 68 65 63 61 59 56 53 50 46 41 36 31 28 26 25 24 24 25 25 26 25 23 22 20 18 16 14 13 13 13 13 14 13 12
84 84 85 86 87 87 87 86 85 85 84 83 81 79 76 73 70 68 65 63 61 59 56 52 47 42 37 33 30 28 28 27 27 28 29 31 31 31 29 26 23 21 19 17 16 15 14 15 15 16 15 14
85 86 87 88 89 88 87 85 83 82 80 77 75 72 69 67 65 64 62 60 57 53 48 43 38 35 32 30 30 30 31 32 33 35 37 38 37 36 32 29 25 22 19 17 16 16 16 16 17 17 17 16
82 82 81 79 78 76 74 72 71 69 68 66 64 62 61 59 58 56 54 50 46 43 39 36 35 34 34 35 36 38 39 41 43 45 45 44 42 39 36 32 27 23 20 18 17 18 19 18 18 17 16 16
71 69 67 65 64 63 63 62 62 61 60 59 57 56 54 52 50 47 45 44 43 42 42 42 43 44 46 47 48 49 50 51 52 52 51 49 45 42 38 34 29 25 21 20 19 20 20 20 19 17 16 15
60 60 61 61 62 62 62 61 61 60 59 58 56 56 55 54 53 51 51 51 51 52 53 54 55 56 57 57 57 58 58 57 56 54 52 49 46 42 38 34 30 25 23 23 23 22 21 20 18 16 15 14
58 60 62 63 64 65 66 66 66 65 65 64 64 64 64 64 62 62 61 61 61 61 61 60 59 59 57 57 58 59 58 56 55 53 51 48 45 41 37 33 30 27 27 27 25 23 21 19 17 16 15 14
65 67 69 71 73 74 75 75 74 74 73 73 72 71 70 69 68 66 66 65 64 63 61 59 57 55 53 53 53 54 54 54 53 51 49 47 43 39 35 33 32 32 32 30 27 24 21 18 16 15 15 14
76 78 80 81 81 81 81 80 80 79 78 77 76 74 73 72 70 69 68 67 66 64 62 60 59 57 56 54 52 52 51 51 51 50 49 46 41 37 35 35 36 37 35 32 28 24 20 18 16 15 14 14
87 86 86 86 85 84 84 83 83 83 82 81 79 78 78 77 76 74 73 72 70 68 66 64 64 62 60 57 53 50 49 49 49 49 47 44 39 37 38 40 42 40 37 33 28 23 20 17 15 14 13 13
85 84 84 84 85 85 85 84 84 84 84 84 82 82 81 81 80 79 77 75 73 70 68 66 63 60 57 53 50 48 47 47 47 46 46 43 40 41 44 45 45 42 37 32 27 23 21 18 15 13 12 12
74 76 79 82 85 87 87 87 87 87 86 85 85 85 85 85 83 81 78 75 71 68 63 59 56 53 50 48 47 47 48 48 48 48 48 48 47 47 49 49 47 42 36 30 27 24 21 17 15 13 13 12
68 72 78 83 88 90 91 91 90 90 89 88 89 89 88 86 83 78 73 69 65 61 58 55 53 53 53 53 54 55 56 55 54 54 54 54 53 52 52 51 48 41 34 31 28 25 21 18 16 16 15 14
66 71 77 82 86 87 88 87 87 87 87 87 86 84 83 80 77 74 70 67 65 63 62 61 61 62 62 62 63 63 63 61 59 58 56 55 54 54 53 50 44 38 34 32 29 25 21 19 19 19 17 17
67 71 75 77 79 79 79 80 81 81 82 82 81 81 80 79 77 76 75 74 72 70 69 68 67 66 66 65 63 63 62 60 59 57 54 52 51 51 49 45 40 35 32 31 30 26 22 21 21 20 19 19
75 77 78 78 78 78 78 79 79 80 81 83 84 85 85 84 83 81 78 74 70 66 62 59 56 54 52 50 48 47 47 48 48 47 45 44 43 43 42 39 36 32 29 29 29 28 25 24 23 21 20 20
81 81 81 81 80 80 81 81 83 84 85 86 86 84 81 77 72 67 61 55 49 43 39 37 34 33 31 30 29 29 29 30 29 30 30 30 32 33 34 33 32 29 28 27 28 28 27 28 27 25 22 20
71 71 71 71 72 73 74 74 74 74 72 70 67 62 57 52 46 42 38 35 32 30 29 28 28 28 28 28 28 28 28 28 26 25 24 24 25 27 28 29 29 28 28 28 28 27 28 29 28 28 26 24
43 44 45 46 48 48 49 49 48 48 46 44 43 41 39 38 37 36 36 35 34 33 33 32 32 32 32 32 33 33 34 34 33 32 30 28 27 26 27 28 28 29 29 29 29 29 30 31 30 30 30 28
33 34 35 36 37 37 38 39 40 40 41 42 42 43 43 43 43 42 42 41 40 39 37 36 35 33 33 33 33 33 33 34 35 35 35 34 32 30 29 28 29 30 30 30 30 30 32 34 35 36 36 33
40 41 42 42 43 44 45 45 46 47 47 48 49 50 50 49 48 46 45 44 42 41 39 38 36 35 34 32 31 30 30 30 31 31 32 33 33 33 32 32 32 33 34 33 32 32 33 34 37 40 42 41

ECMWFFLT2_250_rhum_081.txt.gz
RH
80 80 77 75 74 75 74 70 63 56 51 47 47 46 44 42 40 40 39 38 39 41 43 44 46 47 47 48 48 48 48 48 47 46 45 44 43 42 42 41 39 38 35 32 30 28 26 25 24 22 21 21
77 80 80 77 73 70 66 61 56 51 48 48 48 44 39 38 39 39 40 41 42 44 45 47 49 51 52 51 50 48 47 46 44 43 42 41 40 39 38 37 36 35 34 33 31 30 28 27 26 24 22 21
70 72 72 70 67 63 59 55 52 50 51 52 48 41 39 41 43 43 44 46 47 48 50 52 54 55 54 52 49 46 45 43 42 41 40 39 38 37 37 36 35 35 34 33 32 31 29 28 27 25 24 22
75 74 74 74 73 70 66 62 60 58 56 52 46 41 41 47 53 53 53 53 54 54 55 56 56 56 54 52 49 46 44 42 41 41 40 40 39 39 38 38 37 36 36 35 34 32 31 30 28 27 25 23
79 77 77 77 76 74 69 65 61 56 52 47 44 44 51 60 66 66 63 62 61 61 61 61 59 58 57 55 52 48 46 44 43 42 43 43 43 43 42 42 41 40 39 39 37 36 35 33 31 29 27 25
72 69 67 65 63 59 55 52 50 49 49 50 52 57 65 72 74 72 70 69 68 68 68 67 65 62 60 57 55 51 49 47 46 46 47 47 47 47 46 45 45 44 43 42 41 40 38 37 35 33 31 29
58 57 55 53 51 50 49 50 52 54 57 61 64 69 73 75 75 74 73 73 72 72 72 71 68 65 62 59 57 55 54 52 51 51 51 51 51 50 50 49 48 48 47 45 44 43 41 40 39 37 35 33
60 59 58 57 57 58 59 60 62 64 67 70 73 75 76 76 76 76 75 75 76 75 74 71 68 65 63 61 59 58 57 55 55 55 55 55 54 54 53 52 52 50 49 47 46 45 44 43 42 40 38 36
67 67 67 68 68 68 67 68 70 73 75 77 78 77 78 79 79 79 79 80 79 77 74 70 68 66 64 63 62 61 60 60 59 59 59 59 58 57 57 56 55 53 51 49 47 46 45 44 43 41 40 38
73 74 75 76 75 74 74 75 76 77 78 79 79 81 83 84 84 83 82 81 78 74 71 69 68 67 66 65 66 65 64 64 64 63 63 62 62 61 60 58 56 54 51 49 47 45 44 43 42 41 39 37
83 82 82 82 81 80 79 78 79 80 82 83 84 86 87 85 83 81 79 77 74 72 70 70 69 69 69 69 69 69 68 68 67 67 66 65 65 62 60 57 54 51 49 46 44 43 42 41 40 38 35 32
91 88 87 86 84 83 83 83 84 86 87 88 88 87 84 80 78 75 73 72 72 71 70 70 70 70 71 71 71 70 70 69 68 67 65 63 61 57 54 51 48 46 45 43 42 41 40 38 35 31 27 24
92 90 89 89 89 89 89 90 91 91 90 88 84 81 77 73 71 70 70 70 70 70 70 70 69 69 68 68 67 66 65 63 61 58 55 53 51 48 46 44 44 43 42 40 39 36 33 30 27 24 22 20
94 94 94 95 95 96 95 93 92 90 86 81 77 74 72 70 69 69 69 69 69 68 67 65 63 62 59 57 55 54 53 50 48 47 44 43 42 41 41 40 39 38 37 33 31 29 26 24 23 22 21 20
95 96 96 95 94 93 91 88 84 80 77 74 72 71 70 69 68 66 65 64 62 59 56 54 51 48 45 44 43 43 43 42 41 41 39 38 37 36 35 34 33 32 31 30 28 28 27 27 26 26 25 24
92 91 90 87 85 82 80 78 75 73 71 70 68 66 64 62 59 56 53 51 48 45 43 42 40 39 39 39 39 39 40 39 39 38 38 37 36 36 35 35 36 36 36 35 34 34 35 35 34 33 31 30
83 80 78 77 75 73 72 70 67 65 61 58 55 52 49 46 44 42 41 40 39 39 39 40 40 41 41 42 43 43 42 43 43 43 43 43 43 43 42 42 42 42 42 40 39 39 40 40 39 38 37 35
75 73 70 68 65 62 59 55 51 48 45 42 40 39 39 39 40 40 42 43 44 45 46 47 49 50 51 52 52 52 51 52 51 50 49 48 47 47 46 45 43 42 41 40 39 39 38 38 38 37 37 35
60 57 53 50 48 45 43 42 41 40 40 41 42 44 46 48 50 52 54 55 56 57 57 57 58 58 59 60 61 60 58 57 55 53 51 49 48 46 45 44 43 42 40 39 38 37 37 36 35 35 35 33
43 42 42 42 42 43 43 44 46 47 49 51 53 56 58 61 62 65 67 67 67 67 66 64 63 62 62 63 62 61 59 58 56 54 52 51 49 47 47 46 45 45 43 42 40 39 38 36 34 34 34 34
46 48 49 51 52 52 52 53 53 54 55 57 58 60 61 62 63 64 65 65 64 63 61 60 60 59 60 61 61 61 61 59 57 54 53 53 52 51 51 51 50 48 46 45 44 42 41 38 35 33 34 35
58 59 59 59 58 56 54 53 51 50 49 49 49 50 50 50 51 52 53 54 54 54 54 54 55 56 58 60 61 62 62 61 58 55 54 55 55 54 53 54 54 53 49 46 44 42 40 37 34 33 33 33
58 56 53 50 46 44 41 39 38 37 38 39 40 41 43 45 46 49 51 53 54 55 55 55 56 57 59 61 62 62 62 60 58 55 54 54 54 55 55 54 54 53 50 45 41 39 36 34 32 32 31 31
43 40 38 36 35 34 34 35 37 39 41 44 46 49 51 53 54 56 57 57 58 58 58 57 57 58 59 61 63 63 63 60 58 56 54 53 53 54 54 54 52 50 48 45 42 40 38 38 37 36 34 34
37 38 38 39 40 42 43 45 49 52 55 58 60 62 63 65 65 65 65 65 66 65 65 64 63 64 64 65 67 66 65 63 60 58 57 55 55 55 55 54 53 50 47 47 47 45 43 42 42 42 40 39
45 47 47 48 48 49 50 50 53 56 58 61 63 64 66 68 69 70 71 71 72 72 72 72 72 73 73 73 73 72 70 69 67 65 63 61 59 57 57 56 55 53 50 50 50 48 46 44 43 44 43 43
44 44 43 42 41 40 40 40 40 42 43 44 46 46 48 51 53 56 58 61 63 66 67 69 71 74 76 77 77 77 77 75 73 70 66 63 61 59 57 56 55 53 50 48 45 42 40 39 38 37 36 36
34 34 33 33 33 33 33 33 33 33 34 33 34 34 33 34 35 37 38 40 42 45 47 50 54 58 62 66 68 69 69 68 65 62 59 56 54 52 50 48 46 43 39 36 33 30 27 26 26 26 25 24
33 34 35 35 36 36 36 37 37 36 36 36 36 36 36 35 35 35 35 35 35 35 35 37 38 40 42 44 45 46 46 46 45 43 42 41 39 38 36 35 33 31 29 26 25 24 23 22 22 23 23 22
38 38 38 39 39 40 40 40 40 40 40 40 40 40 40 40 39 39 39 39 39 38 38 38 38 38 38 38 37 37 36 35 34 34 32 32 31 31 30 30 30 30 30 29 27 26 26 26 25 25 26 26
39 39 39 40 40 41 41 41 42 42 42 43 43 44 44 44 44 43 43 43 43 43 43 43 42 42 41 41 40 39 38 37 36 35 35 34 33 33 33 33 33 33 34 33 32 31 30 29 28 27 28 28

ECMWFFLT2_250_rhum_087.txt.gz
RH
99 102 102 100 101 101 100 100 99 99 99 97 95 92 90 87 84 82 80 79 80 79 78 78 78 76 74 71 68 66 65 64 63 62 61 60 60 59 59 59 60 59 59 59 58 56 52 49 47 47 46 44
100 102 102 100 102 101 99 96 92 90 87 85 82 79 78 78 77 77 76 75 75 73 72 70 69 67 65 63 62 61 60 59 57 56 55 55 55 56 57 59 61 61 62 63 63 61 59 57 56 55 53 50
101 102 102 101 101 98 95 91 87 84 81 80 79 78 76 75 73 72 70 68 67 66 65 63 62 60 59 57 56 55 54 54 53 52 52 51 52 55 59 63 65 66 67 69 71 71 69 67 64 63 60 55
102 102 100 99 96 93 90 88 86 83 80 78 75 72 69 67 65 63 61 58 57 58 58 57 57 56 55 55 55 56 57 58 59 60 60 61 63 67 71 73 72 73 74 75 77 77 75 72 69 66 64 60
103 101 98 97 93 88 84 80 77 73 68 64 60 57 54 54 54 54 54 54 55 56 57 57 58 59 60 62 64 67 71 75 78 79 79 80 82 83 85 83 79 78 79 80 80 79 76 74 71 69 68 67
100 96 93 89 82 75 70 65 61 57 55 55 53 53 54 56 58 59 60 61 62 63 65 66 68 70 72 75 77 79 83 87 90 92 93 94 94 92 91 89 85 82 84 85 85 83 81 79 77 75 74 71
84 82 78 72 67 64 61 58 57 57 59 59 60 61 65 70 72 74 75 75 74 75 77 79 81 83 83 83 82 82 81 81 81 81 83 84 86 87 88 88 89 89 90 89 86 84 81 79 77 74 70 66
69 70 71 68 66 64 62 60 60 61 62 62 63 67 71 75 77 78 79 81 82 83 83 84 84 84 83 81 79 76 73 71 68 66 65 66 69 75 81 86 89 89 87 84 80 76 73 70 67 65 62 58
68 70 71 70 67 64 61 59 59 60 61 61 62 64 65 65 67 70 74 77 78 78 77 75 75 73 72 72 71 69 67 66 64 63 63 64 67 70 75 79 81 80 77 74 71 67 64 61 60 58 56 54
73 73 71 69 65 62 59 58 57 58 58 57 56 54 53 53 55 58 61 63 64 64 63 62 62 62 63 63 64 64 64 64 64 64 64 64 65 65 66 66 67 66 65 63 61 59 57 56 55 55 54 54
78 76 72 68 65 62 59 58 58 58 58 58 56 54 53 53 54 54 54 55 55 56 55 55 55 56 58 59 60 61 61 62 61 59 57 55 54 54 55 55 55 55 55 54 54 54 53 53 53 52 52 52
81 79 76 71 68 65 64 63 63 63 64 63 61 58 56 56 55 55 55 56 56 56 55 55 54 54 55 55 56 57 58 58 56 52 48 47 48 50 51 51 52 52 53 53 53 53 52 51 50 49 48 48
82 81 78 76 73 72 71 71 70 70 69 67 65 62 60 58 57 55 54 55 56 57 57 57 56 55 55 54 54 53 52 50 48 46 44 44 46 49 50 51 52 52 53 53 53 52 51 50 49 48 47 47
78 78 76 75 73 71 71 71 70 69 67 65 62 59 57 54 52 51 51 53 55 56 57 56 55 54 53 52 51 49 49 49 48 47 46 47 48 49 49 50 50 51 52 52 52 52 51 51 50 49 49 49
75 76 75 74 73 71 69 68 66 64 61 58 55 54 53 52 52 53 55 57 58 59 59 59 58 57 56 54 54 55 55 55 55 54 53 52 51 51 51 51 51 51 52 52 52 51 52 52 51 51 51 52
67 67 66 65 64 62 60 58 57 56 56 57 58 60 60 61 62 63 64 65 64 64 63 62 61 60 58 59 60 61 62 61 61 60 59 58 56 56 56 56 56 54 54 55 55 54 55 55 55 54 54 53
54 55 56 57 59 62 65 68 71 75 78 82 85 87 86 85 85 85 85 83 81 79 77 75 73 72 71 72 72 72 71 69 68 68 67 66 65 65 66 66 65 62 61 62 62 61 60 59 58 57 56 56
56 59 63 67 73 79 85 90 93 95 97 98 99 99 98 96 95 95 94 92 90 87 84 82 80 80 79 79 80 79 77 75 73 73 72 71 70 69 69 69 68 67 67 66 66 64 62 61 60 60 59 59
64 67 70 72 75 78 79 81 82 83 83 83 82 82 82 81 80 80 79 79 78 77 74 71 70 69 68 69 71 72 72 72 71 70 70 69 68 68 67 67 67 67 67 66 65 63 61 61 60 59 60 60
79 79 79 77 77 76 74 73 71 70 70 69 69 68 68 69 70 70 70 69 69 69 67 65 64 64 64 65 67 69 69 69 68 68 68 68 67 67 66 66 65 65 64 63 62 61 60 59 58 58 58 58
81 79 77 75 74 73 72 71 70 69 69 69 69 69 70 71 73 74 72 71 70 69 68 66 66 66 66 67 68 68 68 67 65 64 64 64 63 63 62 61 61 60 59 58 57 57 56 54 53 51 49 48
69 67 66 65 64 64 63 63 63 64 65 66 66 67 67 68 69 69 68 67 66 65 65 64 63 62 62 62 62 61 61 60 58 57 56 56 55 54 53 52 50 49 48 46 44 43 42 40 38 36 34 32
66 65 64 63 62 61 60 59 59 59 59 59 59 59 58 58 58 58 58 57 56 56 55 55 54 52 51 50 48 47 46 45 43 42 41 40 39 37 36 35 34 33 32 31 30 29 29 28 27 26 25 25
50 49 48 47 46 45 44 43 42 42 41 41 41 40 40 39 39 38 38 38 37 37 36 35 34 33 32 30 30 29 29 28 28 28 27 27 26 27 27 26 27 27 26 27 28 29 30 31 31 30 30 31
30 30 29 29 28 28 28 27 27 26 26 26 27 27 27 27 27 27 27 27 27 27 27 27 27 28 28 28 28 29 29 30 30 30 30 30 31 32 34 35 35 33 33 35 37 38 39 39 39 38 38 38
26 26 26 26 25 25 25 25 25 25 25 25 26 27 27 28 28 28 29 30 30 30 31 31 33 34 35 36 36 36 37 38 39 39 38 38 38 38 39 40 39 36 35 35 37 37 37 37 35 34 33 32
21 21 20 20 20 20 20 20 19 20 20 20 21 21 22 22 23 23 24 24 25 25 25 26 27 29 30 30 30 30 31 32 33 33 33 32 32 32 31 31 31 29 27 26 25 25 26 27 26 25 24 23
18 18 18 18 18 18 18 18 17 17 17 17 17 17 18 18 18 18 19 19 20 20 20 21 21 22 23 23 23 23 24 25 25 26 26 26 26 26 26 26 26 26 25 24 23 23 24 24 25 26 24 23
22 22 22 21 21 21 21 21 21 21 21 21 20 20 20 20 20 20 20 20 20 20 20 21 21 21 22 22 21 21 21 22 22 22 22 22 22 22 23 23 23 23 23 22 21 21 22 21 22 24 24 24
25 24 24 24 24 24 24 24 24 24 24 24 24 25 25 25 25 25 25 25 25 25 25 25 25 26 26 26 25 24 24 24 24 24 24 23 23 23 22 22 23 23 22 21 20 19 19 19 19 19 19 20
22 22 21 21 21 22 22 22 22 23 23 24 24 25 26 26 27 27 27 28 28 28 28 29 29 29 30 30 30 29 29 28 28 28 28 28 28 27 27 26 27 27 27 26 25 23 22 22 21 21 21 21

ECMWFFLT2_250_rhum_090.txt.gz
RH
100 99 98 98 97 96 95 94 93 93 94 96 97 99 100 101 101 101 102 101 102 104 104 104 104 102 103 103 103 108 109 105 105 103 104 109 108 105 104 99 94 89 84 80 77 75 73 71 69 67 65 63
100 100 100 100 100 99 99 98 98 97 95 93 93 92 93 94 94 97 101 103 106 108 107 107 106 104 106 105 103 105 105 104 104 103 104 106 104 100 97 92 87 83 79 78 78 78 76 73 70 67 65 64
102 101 100 100 100 100 100 100 100 100 100 99 98 96 96 95 94 96 98 101 104 105 103 102 103 102 103 102 101 103 103 102 102 102 102 99 98 94 89 85 84 81 77 76 77 77 75 71 68 66 64 62
102 103 103 101 102 102 100 100 100 100 100 100 100 100 100 100 100 100 99 101 102 102 100 100 103 101 101 102 102 103 103 102 99 97 96 93 92 89 87 84 82 80 76 74 73 72 69 67 65 62 61 59
101 104 106 102 103 104 102 103 102 102 103 100 101 100 100 101 100 100 101 101 100 100 100 100 103 101 104 107 104 102 102 101 98 95 94 92 91 90 88 85 81 78 74 71 68 66 65 63 62 59 57 55
101 103 105 101 102 103 102 103 103 104 104 101 103 103 102 103 100 102 103 101 100 100 100 100 102 103 106 106 103 102 102 102 101 99 97 93 90 88 84 80 76 73 70 68 66 64 62 60 59 58 58 58
101 102 102 100 101 104 101 100 101 103 101 99 101 101 101 101 100 102 102 100 100 100 100 101 103 105 106 105 104 103 103 102 101 98 93 86 82 77 73 70 67 65 64 63 62 61 60 60 60 61 63 65
102 102 102 100 100 103 102 100 102 102 100 100 100 100 100 100 100 100 101 100 100 101 103 103 102 103 104 105 104 101 98 95 91 85 78 72 68 65 63 61 61 60 60 61 61 62 63 64 66 67 68 70
101 102 101 101 100 101 101 100 101 100 100 102 101 100 100 100 100 100 102 103 102 103 103 102 101 100 100 97 92 87 80 75 71 68 65 63 62 61 61 62 64 65 67 68 69 70 71 72 73 75 75 75
100 101 100 101 101 100 101 100 100 100 100 101 101 100 100 100 101 101 103 103 103 103 101 99 96 92 87 81 76 71 66 63 61 61 62 63 64 66 67 69 70 72 74 76 77 78 78 79 79 80 81 80
100 99 98 99 97 96 96 94 93 92 91 90 90 90 89 88 88 88 89 89 89 89 88 86 83 79 76 72 69 67 66 65 64 63 63 63 64 66 69 71 72 74 76 78 80 81 82 82 82 82 81 80
95 92 90 88 86 85 84 81 80 78 76 75 75 74 72 72 72 72 72 72 73 73 73 73 72 71 70 69 68 67 67 67 65 65 64 63 62 62 64 66 67 67 69 72 73 74 75 75 76 75 75 74
98 94 89 85 81 79 77 75 74 72 71 70 70 69 68 69 70 70 71 71 71 71 71 71 70 70 70 70 68 67 66 66 65 64 63 62 60 59 59 60 59 59 59 60 61 61 62 62 63 64 65 66
95 94 91 89 87 84 81 79 77 74 72 70 68 68 67 68 69 70 71 73 74 75 75 74 73 73 72 72 70 69 68 67 66 65 63 62 61 60 59 59 58 57 56 56 56 56 56 57 57 57 58 59
83 84 84 83 82 81 80 79 78 76 74 72 69 67 65 63 63 64 64 66 68 70 72 73 74 73 73 72 71 70 69 68 67 67 66 65 64 63 63 62 61 59 58 57 56 55 55 56 56 57 57 57
74 75 75 75 75 74 73 73 72 71 70 69 67 65 63 61 60 59 58 59 60 62 64 66 68 69 70 71 70 69 68 68 67 66 66 65 64 63 63 62 61 60 58 57 55 54 53 53 55 57 58 59
61 62 63 64 65 66 66 66 66 65 65 64 63 63 62 62 62 61 60 59 59 59 61 62 63 65 66 68 69 69 68 68 67 66 65 64 63 62 61 59 58 56 54 53 52 51 50 51 54 56 57 59
55 55 55 55 55 56 57 58 59 59 59 59 59 60 60 61 61 62 62 61 60 58 57 57 57 59 60 62 64 65 65 65 65 64 64 63 62 61 59 58 56 54 53 51 50 50 49 50 52 54 55 56
53 53 53 52 52 52 53 53 54 53 53 52 52 52 52 53 53 53 53 53 53 52 51 49 48 49 50 52 55 57 59 59 59 59 59 59 58 58 58 57 57 55 55 54 53 53 52 53 54 55 56 56
48 48 48 48 48 48 48 48 47 47 46 45 45 45 45 45 45 45 45 45 46 46 46 45 46 46 47 49 51 53 54 55 57 58 59 61 63 67 68 69 70 69 68 67 66 65 64 64 64 64 64 63
48 49 49 49 49 49 49 49 49 49 49 48 48 49 49 49 49 49 49 48 48 48 49 49 49 50 52 53 55 56 57 57 58 59 62 64 67 72 75 76 76 76 76 75 74 72 71 71 70 69 69 68
54 54 55 55 54 53 53 53 53 53 55 55 55 56 58 59 60 61 63 63 63 63 63 63 62 62 62 63 64 65 66 67 67 67 68 69 69 69 71 72 71 69 69 68 67 67 66 65 64 64 64 64
64 63 62 62 61 59 58 57 57 57 58 59 59 60 61 62 63 65 68 70 71 72 74 75 77 78 79 79 80 80 81 82 82 82 80 79 77 75 73 72 70 68 65 63 62 61 60 59 58 57 57 57
55 53 53 52 52 52 52 51 52 52 52 54 56 57 58 59 61 62 64 66 68 70 72 74 76 78 79 81 82 82 83 83 82 82 79 77 76 75 72 70 68 67 65 64 62 61 61 60 60 59 58 58
34 34 34 33 33 33 33 33 33 34 34 35 37 39 40 42 44 47 49 52 54 57 59 61 64 66 68 69 70 71 71 72 71 70 69 68 67 67 68 66 65 64 64 65 65 64 64 65 65 64 64 63
22 22 22 23 23 23 23 23 22 22 22 22 23 23 24 25 26 27 29 31 33 35 37 39 41 44 46 48 50 52 54 56 57 58 59 60 60 61 62 63 62 61 61 62 63 63 63 63 63 63 63 62
18 18 17 17 17 17 17 17 17 17 17 17 17 17 17 18 18 18 19 20 21 23 24 25 26 27 28 30 31 32 33 34 36 38 39 41 42 43 44 46 47 47 47 48 48 49 49 49 49 49 49 49
22 22 21 21 20 20 19 19 19 18 17 17 17 17 16 16 16 15 15 16 16 17 18 18 19 20 21 22 22 23 24 24 25 26 27 28 28 29 30 31 31 31 31 31 31 31 32 32 33 34 34 34
19 19 19 19 19 19 19 19 19 19 19 19 19 19 19 19 19 19 18 18 18 18 18 17 17 17 17 18 18 18 18 19 19 20 21 22 23 24 26 26 27 27 26 27 26 26 27 28 30 33 32 33
11 11 11 11 11 11 11 11 11 12 12 13 13 14 14 15 16 17 18 18 19 20 20 21 21 21 21 20 20 19 18 18 17 17 17 17 18 19 20 20 22 23 22 23 23 23 24 25 27 29 29 32
8 8 8 7 7 7 7 7 7 7 7 7 7 8 8 8 9 10 10 11 13 14 16 18 19 21 22 23 23 23 22 22 21 20 20 19 19 18 18 18 19 20 20 20 19 18 19 19 20 22 23 25

ECMWFFLT2_250_rhum_096.txt.gz
RH
91 89 89 87 85 85 82 79 77 75 73 71 70 69 69 69 69 71 73 74 75 77 79 80 81 80 80 78 78 77 77 78 79 79 79 79 78 78 78 82 86 86 85 86 87 87 87 86 84 83 83 84
103 102 101 99 95 94 93 91 90 87 84 80 77 75 72 71 70 70 70 69 69 70 71 72 75 77 78 77 75 75 75 76 80 83 85 85 85 85 85 86 91 95 95 94 95 97 97 98 98 96 95 93
103 104 104 105 103 100 97 95 95 96 94 94 94 92 89 86 84 83 83 82 81 79 79 78 78 81 83 83 80 78 76 75 78 82 85 88 89 90 88 86 86 89 91 93 95 97 100 102 102 103 103 101
100 101 101 103 103 103 101 98 96 95 92 92 93 94 94 94 93 92 91 90 91 90 91 91 89 90 90 91 90 88 85 81 81 83 85 89 93 96 95 92 88 84 84 86 90 92 98 100 103 106 106 106
100 100 100 100 101 101 102 101 101 99 97 95 93 92 90 90 91 91 90 89 89 90 92 95 97 99 101 102 103 101 100 96 93 92 93 95 97 100 102 103 100 97 92 91 92 93 96 98 103 106 106 108
102 102 101 101 101 101 101 101 102 102 101 101 100 100 97 95 95 93 93 91 90 90 90 92 94 99 103 106 108 108 110 110 108 104 102 102 101 100 100 104 107 108 107 104 104 102 102 103 104 107 107 105
102 103 102 103 102 102 103 103 106 105 102 104 101 101 101 100 102 101 100 100 98 97 95 93 93 94 94 95 96 96 99 101 101 98 97 98 98 98 95 97 101 106 108 108 108 107 107 107 105 107 107 102
102 103 100 103 102 101 104 103 107 106 104 108 105 101 101 99 100 101 102 103 103 104 104 102 100 101 97 92 90 90 91 90 89 88 87 88 89 91 92 93 95 99 103 104 107 105 104 104 103 105 103 102
101 102 100 102 102 101 101 100 103 102 101 106 104 102 101 99 99 98 98 98 99 101 102 103 103 105 104 101 100 98 99 98 96 94 93 92 90 88 88 89 91 93 96 100 104 105 103 100 101 102 100 103
95 96 96 99 101 101 101 101 103 101 100 102 100 100 100 99 99 98 98 97 97 97 98 101 101 102 101 104 105 101 102 105 102 100 100 101 99 97 94 92 92 92 92 94 97 100 102 103 104 103 99 100
91 89 88 88 88 90 92 94 97 97 98 100 100 100 100 101 101 100 100 99 99 98 98 99 100 101 100 102 103 100 102 106 103 101 102 103 101 100 100 100 99 97 96 95 92 92 93 96 99 101 100 100
98 96 93 91 87 85 83 82 82 84 85 88 90 91 93 97 99 99 100 101 101 102 101 101 100 100 100 99 101 100 100 102 102 101 103 105 102 100 101 103 102 99 100 101 99 98 94 91 91 90 92 93
98 97 97 97 96 93 91 89 86 85 83 82 82 82 83 84 85 87 88 89 91 93 96 98 99 100 101 100 100 101 100 100 101 100 102 102 101 100 100 101 101 99 100 100 100 101 100 99 97 95 94 91
95 94 94 94 95 95 96 98 97 95 93 92 91 91 91 89 88 88 87 84 82 81 81 82 84 87 90 91 94 98 98 99 100 100 101 101 101 101 101 101 101 101 102 100 100 100 100 102 101 100 101 99
101 100 99 97 96 97 97 98 99 97 97 97 98 97 97 97 97 98 98 97 95 93 90 86 83 80 78 78 79 82 84 87 91 93 95 96 96 96 97 99 98 98 99 99 99 97 96 98 100 101 102 102
104 104 102 101 100 101 100 99 99 98 97 97 98 97 95 95 96 97 97 99 101 103 103 101 99 95 93 89 82 79 78 78 79 81 84 86 88 89 90 92 92 92 93 94 93 91 87 85 85 86 88 92
99 100 99 100 100 101 101 101 101 101 101 99 100 99 96 95 94 92 90 90 92 93 96 98 100 102 103 103 98 95 93 89 86 83 82 82 83 86 88 89 90 90 92 93 94 95 93 90 86 82 77 76
80 81 81 84 85 86 88 89 91 93 95 95 97 99 98 98 97 96 94 92 89 87 87 87 88 91 92 94 96 99 100 99 99 97 95 92 89 88 88 89 90 91 94 96 97 98 97 96 97 96 92 88
62 62 62 63 64 65 66 67 68 70 72 74 76 78 81 84 86 88 90 91 92 91 91 89 87 87 86 86 87 88 90 92 94 97 100 100 97 97 95 93 92 91 92 94 96 98 99 98 98 99 100 100
57 57 57 57 57 57 56 56 56 56 56 56 57 57 59 60 61 63 66 68 71 74 77 79 81 82 83 84 84 83 83 83 83 85 88 91 92 95 97 97 96 94 93 93 92 93 95 97 97 99 101 101
52 52 52 52 53 53 53 53 53 54 54 53 53 53 53 52 52 52 53 53 53 55 56 58 60 62 65 67 69 72 73 74 74 75 75 77 78 81 84 87 89 90 91 93 92 93 94 93 92 92 94 95
39 39 40 40 41 42 43 44 45 46 47 48 48 49 49 49 50 49 49 49 49 49 49 49 49 50 50 51 52 54 56 58 60 62 63 64 66 67 68 70 72 75 77 79 81 84 87 89 90 90 89 88
25 25 26 26 27 27 28 29 30 32 33 34 36 37 39 40 41 43 44 45 45 46 46 46 46 46 46 46 46 46 46 47 47 48 50 51 53 54 56 57 58 60 61 63 65 67 70 73 76 79 82 83
21 21 21 20 20 20 20 20 20 21 21 22 23 24 25 26 27 29 30 32 34 36 37 39 40 42 43 43 43 43 43 43 42 42 42 42 43 44 45 47 48 49 50 51 53 54 56 57 59 61 64 67
21 21 21 21 21 21 20 20 20 20 20 20 20 19 19 19 20 20 20 21 21 22 24 25 27 29 31 34 35 37 38 39 40 40 40 39 39 39 39 39 40 41 42 43 46 47 48 49 50 51 51 52
21 21 20 20 20 20 20 20 20 20 20 20 20 20 20 20 20 20 19 19 19 18 18 18 18 19 19 21 22 24 26 28 30 32 34 35 36 37 37 37 36 36 35 36 38 40 42 44 45 46 46 46
25 24 23 22 22 21 21 20 20 19 19 18 18 18 18 18 19 19 18 19 18 18 18 18 18 18 17 17 17 17 17 17 18 20 21 23 25 27 30 31 33 34 34 34 34 34 36 38 39 40 41 42
27 27 27 26 25 25 25 24 24 22 21 20 19 19 18 18 17 17 16 16 16 15 16 16 15 16 15 15 15 15 15 15 15 15 15 15 15 16 18 19 21 23 26 28 29 31 32 34 35 36 37 37
28 27 27 27 27 26 26 26 25 25 24 23 22 21 20 20 19 18 17 16 15 14 13 13 13 13 12 12 12 12 12 12 12 12 13 13 13 13 13 13 14 14 15 16 18 20 22 25 28 30 32 33
31 30 30 30 29 29 28 27 26 25 25 24 23 22 21 21 20 19 19 17 16 15 14 14 13 12 12 11 10 10 9 9 9 9 9 9 9 10 10 10 11 12 12 12 13 13 14 15 16 19 21 24
34 34 34 34 34 34 33 32 31 30 29 28 26 25 24 23 22 21 20 18 17 15 14 14 13 12 11 11 10 9 9 8 8 7 7 7 6 6 6 7 7 8 9 9 10 10 11 12 12 13 14 15

ECMWFFLT2_250_rhum_102.txt.gz
RH
88 88 87 86 85 84 83 83 83 81 78 75 71 68 67 65 64 62 60 58 57 56 57 59 61 65 66 66 66 65 65 63 61 59 58 57 55 55 55 57 56 55 54 52 48 43 41 40 42 43 44 46
87 87 88 87 85 84 83 83 84 84 83 82 78 74 71 68 65 63 61 60 59 58 58 58 59 62 65 66 67 66 66 66 66 65 65 64 63 62 62 63 63 61 58 54 51 47 44 42 41 42 43 45
96 93 91 90 88 87 86 85 84 84 85 86 86 84 81 78 76 73 70 68 66 65 64 64 64 64 65 66 67 67 66 66 66 66 66 66 65 65 64 65 67 67 64 59 54 50 46 43 41 41 42 43
107 104 100 97 94 92 90 89 87 87 87 87 88 88 88 87 86 84 82 80 77 75 73 71 69 68 67 66 65 65 65 66 66 66 66 65 65 64 64 64 67 70 71 67 60 55 50 44 41 40 41 41
110 109 108 104 100 98 95 92 89 87 86 85 85 85 85 85 85 85 83 82 80 79 78 76 74 72 71 70 68 68 67 66 66 65 64 64 64 64 64 64 65 69 74 75 71 64 59 53 47 43 41 41
104 106 108 107 104 105 103 100 98 93 90 87 84 82 81 80 80 80 78 77 75 74 73 73 73 72 71 71 70 69 69 67 66 64 62 61 61 61 62 63 64 66 71 78 81 77 70 64 59 55 50 47
91 94 97 99 101 102 100 101 103 99 97 93 88 83 81 80 77 77 76 75 75 73 71 71 71 69 69 69 68 68 68 68 67 66 64 62 61 61 61 61 62 64 67 74 83 87 85 77 70 67 64 61
84 84 84 87 89 91 91 93 97 95 96 96 93 89 86 84 80 77 75 74 75 75 75 75 74 72 70 69 67 67 68 68 69 69 69 68 67 66 65 63 63 64 66 69 76 85 92 92 86 78 74 72
88 86 85 86 85 86 87 88 91 92 95 96 96 95 93 92 89 85 81 78 77 75 75 76 77 77 76 75 73 71 70 70 70 71 72 73 74 74 73 72 70 68 68 69 73 79 88 97 100 95 87 82
88 87 87 87 87 88 88 89 90 92 95 96 97 98 98 98 98 95 93 90 88 84 81 79 78 78 79 80 81 80 79 79 78 78 79 80 81 81 82 81 80 78 76 75 76 80 86 93 101 105 102 96
81 81 81 81 81 82 82 83 84 86 89 91 93 96 98 99 100 99 99 98 97 95 93 90 87 84 83 83 83 83 83 84 85 86 87 88 90 91 92 91 91 90 88 86 85 86 90 94 99 103 105 104
76 77 77 78 78 78 78 78 78 79 80 82 84 87 90 93 95 96 98 98 98 98 98 98 97 95 94 92 91 89 88 87 86 86 87 89 91 94 96 98 98 98 97 96 95 95 96 100 103 103 103 106
75 75 75 75 76 76 76 76 76 76 77 77 78 79 80 81 83 85 88 90 92 94 95 97 98 98 99 98 98 97 96 95 92 90 89 88 88 89 91 95 98 99 99 98 97 96 96 99 103 104 105 108
84 83 81 80 79 78 77 76 74 73 73 73 72 72 72 73 73 74 76 77 79 81 83 85 87 88 92 94 95 97 98 98 99 98 97 95 93 91 89 89 91 93 95 96 96 95 93 92 94 96 99 103
92 90 89 88 87 86 83 81 78 75 73 71 70 69 68 67 66 66 67 67 68 69 70 71 72 73 75 78 80 82 85 89 91 94 97 98 99 98 97 95 93 91 90 90 92 93 93 91 89 88 88 89
92 91 90 90 89 87 86 84 81 79 77 75 74 72 70 69 68 67 65 65 64 64 64 64 64 64 64 64 65 66 67 70 72 75 80 84 88 92 95 97 98 97 96 94 92 91 90 90 89 87 86 84
84 83 83 82 81 79 78 77 77 76 75 74 73 71 70 69 68 68 66 66 66 64 64 63 62 62 61 60 60 60 60 60 60 61 63 65 68 71 75 79 83 88 92 95 97 95 92 91 89 86 86 86
81 80 80 80 80 79 79 78 78 78 77 77 77 75 74 72 71 69 68 66 65 64 63 62 61 60 60 59 58 58 57 57 57 57 57 57 58 59 60 62 64 67 71 75 81 85 88 90 90 88 86 85
78 78 78 78 78 78 78 77 77 77 77 77 78 79 79 78 77 76 74 73 71 69 67 65 63 62 60 59 58 57 57 56 56 55 55 55 55 55 56 56 56 57 58 60 62 64 68 73 77 80 83 84
65 65 64 64 64 64 63 63 63 63 63 64 65 65 66 67 68 69 69 69 69 68 67 67 66 65 63 61 60 59 58 58 57 56 55 54 54 53 53 53 53 53 54 55 55 56 56 58 61 64 68 72
62 61 60 59 58 57 56 55 54 54 53 53 53 53 53 53 53 54 55 55 56 57 57 58 58 58 58 57 57 57 56 56 56 55 55 55 54 54 54 53 53 52 51 51 51 52 52 53 54 55 57 58
64 61 58 56 53 51 49 47 45 44 43 42 42 41 41 41 41 41 41 42 42 43 43 44 44 45 45 45 46 46 47 47 48 48 49 50 50 51 52 52 52 52 52 52 51 50 50 49 49 50 51 52
51 48 45 42 40 39 37 36 35 34 33 33 32 32 31 31 31 30 30 31 31 31 31 31 31 31 31 32 32 32 33 34 34 35 36 38 39 40 42 43 45 46 48 49 50 50 50 49 48 47 47 47
37 35 34 33 33 33 32 31 30 30 29 29 28 28 28 27 27 26 26 25 25 25 24 24 24 24 24 24 24 24 24 24 24 24 25 25 26 27 28 30 31 33 35 38 40 42 44 45 46 46 46 46
33 33 33 33 33 32 32 32 31 31 31 31 31 31 30 30 29 28 28 27 27 26 25 25 25 25 25 24 24 24 23 23 22 22 22 21 21 21 21 21 21 22 23 24 26 28 30 33 36 38 40 42
35 36 36 36 36 35 35 34 34 34 34 34 34 34 33 32 31 30 30 30 29 28 28 27 27 27 26 26 26 26 25 25 25 24 24 23 23 22 22 21 21 20 20 20 20 20 20 21 23 24 27 30
40 40 41 40 40 39 39 39 39 39 39 39 39 38 37 36 35 34 34 33 32 32 31 30 30 30 29 29 29 29 28 28 27 27 26 26 25 25 25 24 24 23 22 22 21 21 20 20 19 18 19 19
39 39 39 39 38 38 38 38 38 39 38 38 38 38 38 37 36 35 35 34 33 33 32 32 31 31 31 30 30 30 30 30 30 30 29 29 29 28 28 27 28 27 26 26 24 24 23 22 22 21 20 19
33 33 33 32 32 32 32 32 32 32 31 31 31 31 30 30 30 29 29 28 28 28 27 27 26 27 26 26 27 26 27 27 27 27 27 27 27 27 27 27 27 28 27 27 26 26 26 25 25 24 22 21
30 30 30 30 30 30 29 29 29 28 28 27 27 26 25 25 24 23 23 22 22 22 21 21 21 21 21 20 21 21 21 21 21 22 21 21 22 21 22 22 22 23 23 24 24 24 24 24 24 24 23 23
33 33 33 33 33 33 32 31 30 29 29 28 27 26 25 24 23 21 21 20 19 19 17 17 16 16 16 15 16 16 16 16 16 16 17 16 17 17 17 17 17 17 17 18 19 20 20 20 20 20 21 21

ECMWFFLT2_250_rhum_108.txt.gz
RH
102 101 100 100 99 99 100 101 103 104 105 105 103 104 103 101 105 103 101 102 101 100 106 111 104 97 90 81 73 65 60 56 55 56 57 56 54 53 51 51 52 57 62 68 72 75 78 80 81 81 78 75
105 106 104 104 102 100 100 99 100 102 105 107 106 107 103 103 106 104 102 102 103 101 105 111 107 103 99 93 86 77 69 62 58 56 57 58 57 56 55 53 51 50 52 55 59 64 69 73 77 79 80 78
105 105 104 104 104 104 104 102 101 100 101 103 105 107 106 107 107 105 104 103 102 101 102 106 106 104 101 97 94 89 84 78 71 67 64 63 63 62 60 58 55 52 52 52 52 54 57 61 66 71 76 78
103 102 100 100 100 102 105 104 104 103 101 100 101 102 103 105 106 106 106 104 103 101 98 98 99 101 102 102 102 100 98 94 90 84 78 75 73 71 69 64 59 56 54 53 52 51 51 52 54 57 63 69
97 98 98 98 97 96 96 97 99 100 100 101 100 101 102 102 102 103 103 104 104 103 100 97 94 93 94 96 98 100 101 101 100 96 90 85 81 79 76 72 66 61 58 56 55 53 51 50 49 49 50 54
87 90 92 94 95 93 93 92 92 92 93 94 96 98 99 101 102 102 101 101 102 101 102 101 99 97 95 93 91 90 91 92 93 93 92 89 85 82 78 76 72 67 62 59 56 55 54 53 51 48 47 47
81 83 84 86 86 87 88 89 87 87 88 88 90 90 91 94 96 98 98 99 99 99 100 100 99 100 99 98 96 93 90 88 86 86 85 85 83 81 77 75 72 69 65 62 59 56 54 54 53 52 50 48
76 78 79 80 80 82 85 86 85 85 86 87 87 86 86 87 87 89 90 91 92 93 94 95 96 96 95 96 95 94 93 89 87 86 84 82 81 79 77 73 71 68 65 63 61 60 57 55 53 53 54 53
83 82 81 80 80 81 83 84 84 84 86 87 87 87 87 87 87 87 87 87 87 88 89 89 90 90 90 91 91 91 91 89 88 87 86 84 83 82 80 78 76 74 71 68 67 66 64 62 58 55 54 55
86 87 86 85 84 84 84 83 84 84 85 86 86 87 87 87 87 87 86 86 86 87 87 88 88 88 88 89 88 89 89 89 89 88 87 87 86 86 85 84 83 82 80 77 75 73 71 70 68 65 61 58
85 85 84 84 84 83 83 83 83 83 83 83 84 85 86 86 86 87 86 86 85 84 83 84 85 84 84 85 85 86 86 88 88 87 87 86 87 87 88 88 87 86 84 82 79 77 75 73 73 72 71 68
89 87 86 85 84 82 82 81 80 79 79 78 78 79 80 81 82 83 83 84 84 82 81 80 80 79 77 77 76 78 78 80 82 82 82 83 83 83 84 85 86 86 86 85 83 80 77 74 73 73 73 73
91 90 89 88 86 86 85 84 83 81 80 78 77 76 75 75 75 74 74 74 75 75 75 75 74 74 73 72 71 70 70 71 73 73 74 75 76 77 77 78 79 80 81 82 82 82 80 78 76 74 73 72
89 87 86 85 84 83 82 81 80 79 79 77 76 74 73 72 70 69 68 68 68 68 67 67 67 67 67 67 67 66 66 66 66 66 66 67 68 69 71 71 71 72 73 74 74 75 76 77 77 76 75 74
87 85 83 82 80 79 78 77 76 76 74 73 72 70 69 68 67 66 65 65 64 63 63 62 62 62 62 62 62 62 61 61 60 60 60 60 60 61 63 64 64 65 66 67 67 68 68 68 69 70 70 71
89 87 85 83 82 80 78 77 76 75 74 74 72 71 69 67 66 65 64 63 62 61 60 59 59 58 58 58 58 58 58 58 58 58 57 57 57 56 57 57 57 58 58 59 60 61 61 61 61 61 61 61
94 93 90 87 86 84 81 80 79 79 78 77 75 73 72 69 67 66 65 63 61 60 58 57 57 56 55 55 54 54 54 54 54 54 54 55 55 55 55 54 54 55 54 55 55 56 56 56 56 56 56 56
86 85 83 82 81 79 78 77 77 77 76 75 74 73 73 72 70 68 66 64 61 60 58 57 56 55 54 53 51 51 50 50 49 49 49 49 49 50 50 51 51 52 52 53 53 54 54 54 54 54 54 53
74 72 70 69 67 66 64 63 63 63 63 62 62 62 61 61 60 59 58 57 56 55 54 53 52 51 51 50 49 48 47 47 47 46 46 46 45 45 45 46 46 46 47 48 48 49 50 51 52 52 53 53
79 77 75 73 71 69 66 65 66 65 63 61 60 58 55 54 53 52 52 51 50 49 49 48 48 47 46 45 44 43 43 42 42 42 42 42 41 41 41 41 41 41 41 41 41 42 43 44 45 47 48 49
88 88 87 85 84 83 80 78 78 77 75 72 71 69 67 65 63 62 60 58 57 56 55 54 54 53 51 49 47 46 45 44 43 42 41 41 40 39 39 38 38 38 37 37 37 37 37 38 38 39 40 42
88 87 85 84 83 82 81 79 79 78 77 75 74 74 73 71 69 68 66 64 63 62 61 60 59 58 56 55 53 52 51 50 48 47 46 45 44 43 42 41 40 38 37 36 36 35 34 34 34 34 35 36
75 74 73 73 73 73 72 71 70 70 70 69 69 68 67 65 64 62 61 60 58 58 57 55 55 54 52 51 50 50 49 48 48 47 46 45 45 44 43 43 42 41 40 39 38 37 36 35 34 33 32 32
57 57 57 57 57 57 57 56 55 55 54 53 52 51 49 47 46 44 43 42 40 39 38 37 37 36 36 35 35 35 34 34 34 34 33 33 33 33 33 33 33 34 34 33 33 33 33 33 33 32 32 32
43 41 41 40 40 39 39 39 38 37 36 35 34 34 32 31 30 30 30 29 29 28 28 27 27 27 27 26 26 26 26 26 25 25 25 25 24 24 23 23 23 23 23 23 23 23 24 24 24 25 25 26
35 34 33 32 32 32 32 33 32 32 32 32 32 32 31 31 30 31 30 30 29 29 28 27 27 27 26 25 25 25 25 24 24 24 23 23 23 22 22 22 22 21 21 21 21 21 20 20 19 18 18 18
36 36 35 35 35 35 35 35 34 33 33 32 32 31 30 29 28 27 26 25 25 24 24 23 23 23 22 22 21 21 21 20 20 20 19 19 18 18 18 18 18 18 18 18 18 19 19 19 19 18 18 17
37 36 35 34 33 32 31 30 29 29 28 27 26 25 24 24 24 24 24 24 24 24 23 23 23 24 24 24 23 23 23 23 22 21 20 20 19 18 17 17 16 16 16 16 15 14 14 14 14 15 15 16
31 30 29 29 28 27 27 27 27 27 27 26 26 26 26 26 27 28 29 29 29 29 29 29 29 29 29 29 29 29 29 29 28 28 27 25 24 23 22 21 20 19 19 18 17 15 13 12 11 11 11 11
29 28 28 28 28 28 28 29 29 29 29 29 30 31 31 31 32 32 32 32 32 31 31 31 31 31 31 31 31 31 31 31 31 31 31 30 29 28 26 26 25 24 23 22 21 19 17 14 12 12 11 10
31 31 31 31 32 32 33 32 32 32 32 32 33 34 34 34 34 34 33 32 32 31 31 30 30 29 29 30 30 31 32 32 32 32 32 31 30 29 28 28 28 26 25 24 24 23 21 19 16 13 12 10

ECMWFFLT2_250_rhum_111.txt.gz
RH
103 103 103 103 102 103 104 106 106 106 106 103 104 104 100 101 101 100 100 100 100 100 100 100 100 102 102 102 102 103 101 100 101 105 110 110 108 101 90 81 75 68 62 58 55 54 57 57 57 58 58 59
102 102 103 104 102 101 100 101 102 104 106 106 108 106 102 105 105 102 101 101 101 100 101 101 100 100 101 100 101 102 100 100 101 102 104 106 110 110 104 95 86 79 72 65 60 57 58 61 64 64 65 66
103 103 102 103 102 102 100 99 99 100 102 105 106 106 106 109 109 107 106 105 104 103 103 102 101 101 101 100 101 101 100 100 101 102 102 101 105 108 108 105 99 94 87 79 71 64 59 60 63 66 67 68
104 104 101 102 103 101 100 100 100 101 102 103 104 105 106 106 107 107 107 108 107 107 107 105 104 103 102 100 101 102 101 101 100 101 101 99 101 102 103 104 103 102 100 95 88 79 70 62 60 62 63 64
92 95 98 102 103 102 100 100 100 101 102 102 103 103 103 104 104 105 107 108 107 108 107 107 106 107 107 104 104 103 101 103 102 101 102 101 100 100 100 101 101 102 102 103 102 98 91 81 71 65 63 62
76 80 86 91 96 100 100 99 99 100 100 101 101 102 104 103 102 106 107 105 107 110 109 108 107 105 106 105 106 106 104 105 103 100 103 105 103 101 101 101 100 101 102 103 104 105 104 101 93 83 74 69
67 70 72 76 80 84 89 92 94 96 97 98 99 102 107 105 104 108 106 104 106 108 106 108 110 108 106 104 103 104 106 107 104 100 103 106 105 104 104 103 103 101 102 103 103 104 103 104 105 101 93 85
65 66 66 68 69 71 74 77 80 84 87 90 93 96 100 101 102 104 103 104 106 106 103 104 108 111 110 108 106 104 105 105 104 103 102 104 103 104 105 104 105 102 101 101 102 104 103 102 104 104 103 100
67 66 65 64 64 65 67 68 69 71 74 77 80 84 87 89 92 93 95 96 98 99 101 102 102 105 106 106 107 107 108 106 107 107 103 103 102 103 103 102 104 104 103 103 103 104 103 103 103 102 102 102
77 76 73 70 69 67 66 67 67 67 68 69 70 72 74 77 79 81 84 85 87 88 90 92 92 94 96 97 99 100 103 103 106 107 105 105 103 105 106 104 105 104 104 104 103 103 102 103 102 102 103 102
79 79 78 76 76 74 71 69 67 67 67 68 68 69 70 71 72 73 75 76 78 79 79 80 81 82 84 85 86 86 89 91 94 96 98 99 100 102 105 105 106 104 104 103 103 102 102 102 101 101 100 101
75 75 73 72 73 72 71 69 67 66 65 65 65 66 68 69 71 71 72 73 74 74 74 74 74 74 75 76 76 76 77 78 80 82 83 86 88 90 92 95 97 98 99 100 100 99 100 101 101 101 101 100
81 79 76 76 75 73 72 71 68 67 65 64 64 64 65 65 66 67 68 70 71 72 73 73 73 73 72 72 72 72 71 72 72 73 74 75 76 78 80 82 84 85 87 89 91 92 93 94 94 96 97 97
91 88 85 84 82 80 81 79 75 74 71 67 67 66 65 64 63 63 62 63 64 65 66 67 68 68 68 68 68 68 67 67 67 68 68 68 69 69 70 71 72 73 75 77 78 80 82 83 85 86 87 88
98 96 94 93 91 91 91 87 84 84 81 75 73 71 70 68 66 64 63 62 62 61 62 62 62 62 63 63 63 63 63 62 62 62 63 63 63 63 63 62 63 63 64 65 66 67 68 69 71 73 75 76
100 100 100 99 98 98 97 94 91 91 90 85 81 79 79 76 73 71 69 68 67 65 65 65 64 63 62 62 61 60 60 60 59 59 58 58 58 58 58 58 58 58 58 58 59 59 59 59 60 62 63 64
100 100 99 97 97 95 93 92 90 90 91 88 84 83 83 83 81 79 76 73 72 71 69 68 66 64 63 62 60 59 58 57 56 56 56 55 55 55 55 55 55 55 54 54 54 54 54 54 54 54 55 56
96 97 96 95 96 97 95 95 94 93 94 92 88 87 86 86 86 85 82 79 79 77 74 71 67 64 62 60 58 57 56 55 54 53 53 52 51 51 51 51 51 51 51 51 50 50 50 50 49 49 49 49
96 97 96 95 95 95 93 91 91 89 90 89 86 86 85 84 83 84 83 82 82 82 79 75 72 68 66 63 60 59 57 56 55 53 53 51 51 50 49 48 48 47 47 46 46 46 46 46 46 46 46 46
90 89 87 86 85 83 81 78 76 75 75 74 73 72 71 70 70 70 70 70 70 70 70 68 68 66 65 64 62 60 58 57 56 55 54 53 52 51 50 49 48 47 46 45 45 44 44 44 44 44 43 43
86 84 82 82 81 79 75 71 69 69 69 68 66 63 61 60 60 60 60 59 58 57 57 57 56 55 54 54 53 52 51 50 50 49 49 48 47 46 46 45 44 44 43 43 42 42 42 41 41 41 41 41
91 92 90 89 86 83 79 74 72 72 72 71 67 63 61 59 59 59 58 57 56 55 55 55 53 52 51 49 48 48 47 46 45 44 43 43 42 41 41 40 40 39 39 38 38 38 37 37 37 36 36 37
97 96 94 91 87 85 82 79 78 78 78 77 75 73 71 68 67 65 64 64 63 63 63 62 61 59 58 57 55 54 53 52 51 50 49 48 48 47 46 45 44 43 42 41 41 40 39 37 36 35 35 34
93 91 89 86 84 82 80 78 76 75 75 74 72 71 70 68 66 64 63 63 62 62 61 61 60 59 58 58 57 56 55 55 54 53 52 52 51 50 49 48 47 46 45 44 43 42 41 40 39 38 37 36
71 69 67 66 64 62 61 60 59 58 57 56 56 55 54 53 52 51 50 49 48 48 46 45 44 43 42 41 41 40 40 39 39 38 37 37 36 35 35 34 34 33 32 32 31 31 30 30 29 29 29 29
52 52 51 52 52 52 51 51 51 50 50 49 49 48 46 45 43 42 41 39 38 37 35 34 33 32 31 29 29 29 28 28 28 28 27 27 27 27 27 27 26 26 25 25 25 24 24 23 23 22 22 22
46 46 45 45 45 44 43 43 42 40 40 39 38 37 37 36 36 35 34 34 34 34 33 33 32 32 31 31 30 30 30 29 29 28 28 28 27 27 27 26 26 25 25 25 24 24 23 23 23 22 23 23
38 37 37 37 36 36 36 36 36 36 36 36 35 35 36 36 35 35 34 34 33 33 33 32 31 30 30 29 28 27 27 26 26 25 24 24 23 23 23 23 23 22 22 22 21 21 21 21 21 20 20 20
39 39 39 39 38 38 38 38 38 38 37 36 35 35 34 33 32 32 31 30 29 29 28 28 27 26 26 25 25 25 25 24 24 24 23 24 23 23 24 24 24 24 24 24 23 23 22 22 22 22 21 20
39 38 38 37 37 36 35 35 34 33 32 32 31 31 30 30 29 29 28 28 27 27 28 28 28 27 27 27 27 27 27 27 27 27 27 27 27 27 27 27 28 28 28 28 28 28 27 26 26 26 25 25
36 36 35 35 35 34 34 34 33 32 32 31 31 31 31 31 31 30 30 29 29 29 30 31 31 31 31 31 31 31 31 31 31 31 31 31 31 30 30 30 30 31 31 31 31 30 30 29 29 28 28 27

ECMWFFLT2_250_rhum_117.txt.gz
RH
99 104 103 102 101 100 100 100 100 101 101 101 99 96 96 99 102 102 100 102 103 102 103 103 105 105 103 102 102 102 101 103 103 102 102 100 98 96 95 97 97 96 94 91 90 89 87 87 87 88 89 90
101 107 108 108 107 106 105 104 102 103 102 101 100 95 90 91 97 101 103 103 103 101 101 101 101 103 103 101 101 100 101 102 102 102 101 102 102 100 98 99 100 99 99 97 96 95 93 91 91 91 91 90
108 110 109 110 110 108 106 104 105 106 106 106 105 103 97 92 91 95 100 102 103 102 101 102 102 102 102 101 101 101 102 101 100 100 101 101 102 101 100 101 102 101 100 99 98 97 96 96 95 94 92 89
107 108 106 107 107 105 104 105 106 105 105 107 107 105 104 103 100 97 98 97 100 101 100 102 103 102 101 101 102 100 101 101 100 101 101 101 101 100 100 101 101 101 101 100 99 97 95 96 96 96 96 94
103 106 105 103 103 102 103 104 104 102 101 102 101 101 102 104 105 104 102 100 101 101 99 102 104 103 102 103 103 100 101 101 100 101 101 100 100 100 100 101 100 101 101 100 100 98 97 96 96 96 99 101
102 105 107 103 102 103 102 102 102 102 100 101 101 101 101 102 103 103 103 102 103 104 102 103 104 105 105 105 105 102 102 104 101 102 103 100 100 101 100 100 100 100 100 100 100 100 100 98 97 96 98 101
101 103 106 103 103 105 104 103 104 103 102 103 103 103 105 105 103 103 102 101 102 102 102 104 105 106 107 108 107 106 106 106 103 103 106 102 102 104 102 101 101 101 101 100 100 100 101 100 100 99 99 100
102 101 102 101 102 104 103 104 104 105 106 106 106 105 105 104 103 104 101 99 99 98 99 101 101 100 103 105 106 107 108 106 102 104 107 104 105 105 103 103 103 102 102 102 101 101 101 100 101 101 100 100
104 103 104 103 103 103 102 103 101 100 102 104 105 100 94 92 94 98 96 95 95 95 96 97 96 93 95 97 99 102 104 103 101 103 105 102 104 105 103 105 106 103 102 105 105 104 103 101 101 102 101 100
95 94 95 97 97 97 97 97 95 94 95 95 94 87 81 79 80 84 86 88 88 87 87 88 91 91 91 91 93 95 97 98 97 98 99 98 99 101 102 105 107 104 104 107 106 106 106 103 101 103 104 101
90 87 85 87 87 86 86 85 84 85 86 86 83 79 77 76 75 75 76 77 78 79 79 79 82 87 90 91 91 92 93 94 94 94 94 95 94 95 97 99 102 103 104 104 104 105 105 104 103 104 107 105
92 91 89 88 87 85 85 84 83 85 86 87 86 85 84 82 79 77 74 72 71 71 72 74 75 79 84 87 89 90 91 92 92 92 93 94 94 94 95 95 97 100 101 101 101 103 103 104 104 105 106 106
91 88 86 85 83 82 82 82 83 82 82 82 83 84 84 83 81 80 78 77 75 71 68 66 67 69 73 76 80 82 85 87 88 89 91 93 94 94 94 95 96 98 98 99 100 101 103 103 104 105 106 106
91 87 84 82 79 78 76 74 74 73 71 71 70 70 70 71 71 72 74 75 78 79 76 71 67 65 66 68 70 73 75 77 79 81 83 86 88 89 90 91 94 95 96 96 97 98 99 101 101 102 104 105
98 95 92 91 88 84 78 72 70 68 67 66 65 64 63 62 62 63 64 65 68 72 76 77 76 74 72 71 71 72 74 75 75 75 76 77 78 79 81 83 85 86 88 89 91 92 93 95 96 97 98 100
102 102 102 102 100 96 90 85 82 79 77 75 73 70 67 65 63 62 62 62 62 63 65 68 71 74 75 76 76 76 77 77 77 77 77 76 75 75 75 75 75 76 77 78 79 81 83 85 86 88 89 91
102 103 103 103 103 103 102 101 101 100 96 93 91 88 83 79 75 71 69 66 64 62 61 61 61 63 66 69 71 73 74 75 74 74 74 73 72 72 71 71 71 70 70 70 70 71 72 73 74 75 76 78
101 101 101 101 101 103 103 103 105 106 105 104 105 103 99 96 92 87 83 78 73 70 66 64 61 60 60 61 61 63 64 66 65 65 65 65 64 64 63 63 63 63 63 63 63 64 64 65 66 67 67 68
101 100 100 100 100 101 101 101 101 102 103 103 104 103 102 103 102 101 99 94 89 84 78 72 67 64 63 62 60 58 58 58 58 58 58 57 56 56 56 55 55 54 54 54 55 55 56 56 57 58 59 60
101 101 100 101 102 101 101 101 101 102 101 101 101 100 101 101 101 103 103 101 99 95 91 85 79 74 71 68 66 64 62 60 59 57 56 54 53 54 53 52 52 51 50 50 50 50 50 50 51 51 52 53
102 104 102 103 104 104 105 103 102 103 101 101 101 100 101 102 102 103 103 102 101 100 100 95 90 87 85 84 81 79 75 70 67 64 62 61 59 59 59 58 58 57 56 55 54 52 51 51 50 50 50 51
97 100 100 101 102 103 105 102 102 103 102 103 102 101 103 104 104 106 106 105 104 103 101 98 97 96 97 100 99 98 95 89 84 80 78 77 76 74 73 72 71 70 69 68 66 63 60 58 56 55 54 53
85 86 88 89 90 91 93 92 93 93 93 96 96 97 99 100 100 102 103 104 103 102 101 100 99 100 103 105 105 106 104 99 97 94 91 91 88 86 84 82 80 79 78 76 73 70 67 65 62 60 59 58
87 86 85 86 86 87 86 83 82 83 83 84 83 83 84 84 85 86 87 88 89 90 90 91 92 93 96 97 97 98 97 96 96 96 95 94 92 91 89 87 85 84 82 79 76 75 74 72 71 69 67 66
94 95 95 94 94 94 93 91 92 93 93 91 87 84 81 79 77 74 73 72 72 72 74 75 75 76 76 76 77 78 78 79 79 80 81 81 81 80 80 79 79 78 76 75 73 73 72 71 70 69 68 67
84 87 89 90 90 92 94 96 99 101 101 100 99 97 93 89 85 81 79 78 77 79 80 80 78 75 73 72 72 71 71 71 69 69 68 68 68 68 68 67 66 65 65 66 65 64 63 62 61 60 59 58
70 72 72 74 76 78 80 82 83 85 86 87 87 87 86 83 82 81 81 82 83 85 85 85 83 81 80 80 79 78 77 77 75 73 71 69 68 66 64 63 62 61 61 61 60 58 58 57 55 54 53 52
56 58 59 61 62 63 64 65 66 66 67 68 68 67 67 67 66 66 67 68 69 70 70 71 71 71 71 71 70 70 69 69 68 67 66 64 62 60 58 57 56 55 54 53 52 50 50 49 48 48 47 45
41 42 43 44 46 47 48 48 49 49 50 51 51 51 51 50 50 50 50 50 50 50 51 51 51 51 51 50 50 50 49 49 49 48 48 47 46 46 45 45 45 45 45 44 43 43 42 42 41 41 40 40
41 41 41 41 41 41 41 41 41 42 41 40 40 40 40 40 40 40 40 40 39 39 39 39 39 39 39 39 38 39 39 39 39 39 38 38 38 38 38 38 38 39 38 38 38 38 37 37 36 36 36 36
45 45 46 45 45 45 45 45 45 45 44 42 42 42 42 42 42 42 42 42 42 41 41 41 40 41 41 41 41 41 42 42 42 41 41 41 41 40 40 39 39 39 38 38 39 38 38 37 37 36 36 36

ECMWFFLT2_250_rhum_120.txt.gz
RH
94 90 89 93 99 103 102 102 103 104 102 97 95 90 85 78 73 80 90 96 100 101 99 98 99 98 98 99 102 103 102 100 99 100 98 96 94 95 96 94 91 88 89 93 96 97 98 101 102 102 103 104
93 98 99 97 99 103 102 102 102 102 102 98 96 97 97 95 90 91 96 100 105 107 104 100 101 103 101 100 101 103 104 101 99 99 100 101 100 98 97 95 93 89 86 86 88 92 95 98 99 100 100 98
81 89 97 100 101 102 103 102 102 102 104 102 99 101 102 105 106 105 104 103 100 102 104 103 102 103 103 104 104 101 100 102 103 103 103 103 104 104 103 100 98 95 92 89 86 88 91 94 95 96 95 93
93 93 90 90 89 89 90 92 95 99 103 104 103 106 106 105 106 104 103 101 95 94 98 102 104 103 102 104 106 104 101 101 102 104 105 106 105 105 107 105 103 102 100 98 95 91 89 90 91 93 92 91
103 104 99 97 93 87 84 84 88 91 93 93 95 100 103 102 100 98 97 95 95 94 93 95 100 102 102 101 102 103 103 102 102 102 101 104 104 102 103 102 102 102 102 101 99 98 94 91 90 91 92 92
102 102 101 101 100 98 96 95 96 97 97 97 96 97 99 101 102 101 99 98 97 98 98 96 97 100 103 102 99 96 96 99 103 103 101 103 104 101 100 100 100 101 101 101 101 100 99 96 94 93 93 92
104 103 101 100 98 99 101 102 105 107 107 105 102 102 102 102 104 104 105 105 103 103 103 101 102 103 103 105 104 100 95 94 97 101 103 105 106 105 102 101 100 101 102 102 102 101 101 101 100 97 96 94
105 105 104 104 101 99 100 101 104 107 107 103 101 101 102 103 103 103 104 105 104 105 104 103 106 105 101 103 106 104 100 97 95 97 101 105 108 109 107 104 101 103 104 101 101 101 102 102 102 101 99 98
103 105 104 103 103 103 102 101 102 103 104 102 102 101 101 102 101 101 102 103 102 101 102 103 104 102 101 102 103 102 100 98 96 93 94 96 99 104 107 105 103 105 106 104 102 101 102 101 100 101 101 101
97 100 101 100 101 102 101 102 102 101 102 103 104 106 106 104 101 101 102 101 101 101 101 102 102 101 101 102 101 100 99 97 95 92 88 87 89 93 98 101 102 102 104 104 103 102 104 103 101 101 101 100
88 91 92 93 93 93 91 91 91 92 97 101 104 105 105 104 102 102 102 102 102 102 102 102 102 103 102 100 98 98 98 97 96 93 88 85 84 83 85 90 93 94 96 99 100 101 103 104 102 101 102 102
81 81 82 83 83 82 82 81 80 81 86 94 101 103 103 103 101 100 99 98 98 97 96 95 94 94 93 93 92 92 92 89 87 85 82 80 81 81 79 80 82 84 87 89 91 92 95 98 99 99 101 102
92 89 88 89 90 90 90 90 88 87 87 89 92 94 95 93 91 88 86 86 86 86 85 83 82 80 80 81 82 83 84 81 77 75 74 73 75 78 77 77 77 77 79 80 81 83 85 88 91 94 96 97
104 102 102 99 98 97 97 97 95 94 93 90 88 86 83 81 79 78 78 79 78 78 79 80 82 82 81 80 80 81 81 80 77 75 75 74 74 75 75 75 75 75 75 75 77 78 81 83 84 87 89 91
104 105 107 103 100 99 98 95 93 91 91 91 88 85 84 83 84 85 86 85 83 81 80 81 82 83 83 81 82 82 82 82 82 83 84 82 80 78 76 74 73 73 74 74 76 77 80 83 84 86 87 88
102 103 106 104 104 107 106 101 99 97 96 97 93 91 92 93 95 95 94 92 89 87 86 85 83 83 82 81 82 82 83 83 84 86 87 87 86 84 83 81 78 74 72 71 72 74 77 80 83 86 88 89
107 108 108 106 106 109 109 106 105 104 104 105 102 100 102 104 104 101 99 97 94 92 89 88 87 86 84 80 78 76 76 76 76 78 78 78 79 79 81 82 84 83 81 77 73 70 70 73 76 79 82 84
104 107 107 106 107 108 108 107 106 106 105 105 102 102 103 104 105 104 104 103 101 99 97 95 94 93 92 87 82 78 75 73 72 71 70 69 68 69 70 72 75 78 82 83 81 78 74 72 71 73 75 77
99 101 101 102 105 105 104 103 103 103 103 103 101 101 102 102 102 100 101 101 100 101 100 102 102 100 101 100 96 92 89 86 83 79 76 73 71 69 67 66 66 66 69 72 76 78 79 78 78 77 77 78
101 102 101 101 102 101 101 101 101 101 102 102 101 102 102 102 100 97 97 95 94 95 96 99 99 98 98 100 99 96 94 92 90 85 82 79 77 75 72 70 68 66 64 64 65 67 70 72 75 77 78 79
102 102 101 101 100 101 102 101 102 104 105 103 103 105 103 103 102 99 98 96 95 95 93 92 90 86 85 86 86 85 83 83 83 81 80 80 79 78 76 74 71 68 66 64 63 62 62 63 65 67 69 70
101 101 101 101 101 101 102 102 103 104 105 104 104 104 103 103 102 100 100 99 98 96 93 89 85 81 79 79 78 78 77 76 78 80 80 81 81 79 76 73 71 69 67 66 64 62 61 61 61 61 61 62
99 101 102 103 103 102 103 104 102 102 103 102 101 101 101 101 100 101 100 100 100 99 97 95 92 90 89 88 87 85 85 85 86 87 87 86 83 80 76 74 73 72 72 70 68 66 63 62 61 60 60 59
95 97 98 100 100 99 101 103 101 101 102 102 103 102 103 103 102 102 101 101 102 102 100 100 100 99 98 99 98 97 98 100 98 97 96 92 88 86 83 82 81 81 81 79 77 72 69 68 67 66 64 63
80 83 85 88 90 90 93 95 95 97 98 100 102 102 104 105 103 104 104 104 104 103 102 102 103 102 101 102 102 101 103 107 104 100 101 98 96 97 94 91 90 90 89 87 84 81 79 79 77 74 72 71
61 64 66 69 72 75 77 79 81 83 85 86 88 91 94 96 95 96 97 96 95 95 96 97 97 96 97 98 99 98 97 100 98 95 97 96 94 95 94 92 92 91 89 86 85 85 84 83 82 80 79 78
55 56 56 57 58 60 61 63 64 66 68 70 72 75 78 79 80 80 80 80 79 80 81 82 83 83 84 84 84 85 85 86 86 85 85 84 84 84 83 82 80 80 79 78 78 78 77 77 76 76 77 77
44 47 49 51 54 56 58 59 60 61 62 63 64 64 64 64 65 65 66 68 69 71 72 72 73 72 72 72 73 74 75 76 77 77 77 77 77 76 75 74 72 70 70 69 68 68 67 67 67 67 66 66
33 35 37 39 43 47 50 53 55 57 59 60 60 60 60 60 60 61 62 63 64 65 65 65 65 65 65 65 65 65 66 66 67 67 68 68 67 66 66 65 64 63 62 62 61 60 60 60 60 59 58 57
40 39 38 37 37 38 39 40 42 45 46 47 48 49 50 51 52 54 55 56 57 57 57 58 58 58 58 58 58 58 58 58 58 58 57 57 56 55 55 54 54 53 52 52 51 50 50 50 50 49 48 48
48 47 46 45 44 43 43 42 43 43 42 40 40 39 40 40 41 42 43 43 44 44 44 45 45 45 45 46 46 46 46 46 46 45 44 44 43 43 42 42 42 41 40 39 39 39 38 37 37 37 36 36

ECMWFFLT2_250_rhum_123.txt.gz
RH
98 95 99 102 100 100 100 97 98 102 100 99 98 98 97 93 90 91 96 100 96 91 86 82 84 87 88 89 90 92 94 94 95 96 98 101 101 100 96 88 80 74 73 73 74 76 80 86 89 91 91 89
100 95 96 100 101 100 100 100 100 101 101 100 99 98 98 97 96 95 99 101 94 84 79 77 77 79 82 83 85 88 90 91 92 94 95 98 100 103 106 104 98 92 86 81 77 77 80 86 91 97 100 98
101 100 97 96 99 100 100 100 100 101 102 101 100 100 100 100 101 100 101 102 97 89 84 82 78 78 79 80 81 82 84 86 86 89 92 95 95 97 101 104 105 104 101 97 93 88 85 83 85 91 97 103
99 102 101 97 96 99 102 102 101 101 101 101 100 100 100 99 101 102 102 102 102 99 98 95 86 80 78 77 78 77 78 80 82 86 89 93 95 95 95 97 98 101 102 102 102 100 97 94 90 89 91 95
97 99 100 101 100 98 99 101 103 104 103 102 101 100 99 98 99 99 99 100 101 100 99 99 93 86 82 81 80 78 76 75 76 82 87 91 95 98 98 98 97 96 97 99 101 101 101 100 97 96 95 93
100 100 99 98 101 100 98 99 101 103 103 104 104 104 101 99 98 97 97 98 99 98 98 98 95 89 86 84 83 82 80 77 76 81 89 93 94 97 99 102 104 101 99 99 101 102 103 101 99 99 99 98
100 102 102 98 96 97 97 99 101 102 104 105 106 104 102 101 100 99 99 100 100 100 100 101 101 97 91 85 81 80 80 80 80 82 89 95 95 97 97 99 103 103 102 101 101 101 101 103 103 103 103 102
101 100 100 99 98 97 94 93 94 97 100 102 105 104 103 103 100 99 100 100 102 102 101 101 103 101 98 96 92 89 87 85 83 85 87 89 90 92 96 97 98 99 99 100 102 102 101 101 102 103 104 104
97 99 100 100 100 101 99 96 91 89 90 93 100 101 102 104 103 102 103 103 104 102 102 104 104 104 106 106 102 102 104 100 94 92 90 88 87 87 90 93 95 96 96 96 99 101 101 101 101 101 101 101
92 89 95 99 100 101 101 102 101 97 94 94 95 95 96 101 105 107 109 110 108 104 104 105 101 101 103 101 99 103 108 108 106 103 100 98 96 94 91 90 91 92 94 95 95 96 96 96 97 99 101 101
102 93 90 94 99 101 101 101 102 101 101 100 100 102 102 103 107 108 108 109 108 104 99 94 90 91 92 91 91 92 95 98 101 104 104 104 103 102 100 98 95 95 96 97 97 98 98 96 95 95 97 98
108 105 102 101 101 100 99 99 100 101 101 100 100 103 106 107 110 109 107 108 109 107 103 97 93 93 91 91 91 87 87 88 90 95 97 100 103 106 107 103 100 100 103 102 101 102 102 100 97 94 92 92
105 105 104 104 104 103 101 98 97 98 99 99 99 100 101 103 106 107 106 107 107 107 107 104 102 101 98 99 99 95 94 93 93 95 95 98 101 104 105 102 100 101 104 104 102 102 100 97 94 89 86 83
102 102 102 102 101 102 103 101 98 96 95 95 97 98 100 101 101 103 104 104 105 104 104 103 102 101 101 103 103 100 100 101 100 101 102 102 101 100 99 96 96 96 96 95 94 93 92 90 89 86 83 80
101 100 102 102 101 101 101 103 103 101 98 95 95 96 97 99 99 99 99 100 100 101 102 103 102 102 101 102 100 98 97 98 100 101 102 101 98 96 93 90 88 87 85 82 79 78 77 77 78 78 76 74
100 100 101 101 101 101 100 100 100 101 100 98 96 95 93 94 94 94 94 94 94 95 97 98 97 95 94 92 90 89 90 92 94 96 96 93 89 85 81 78 75 74 71 68 66 64 64 65 66 66 65 63
100 100 101 100 101 101 100 100 99 97 97 96 95 92 90 88 87 89 91 93 95 94 93 93 93 93 94 95 95 95 95 99 102 101 98 92 87 82 78 76 75 74 73 71 69 68 68 68 67 67 67 66
101 101 101 100 101 101 100 101 102 100 98 98 97 95 95 92 90 92 93 95 97 97 99 100 100 100 101 104 107 106 104 108 112 109 105 99 94 91 89 90 91 90 88 85 83 82 82 81 80 80 80 80
101 100 101 101 101 101 101 102 102 101 102 102 101 100 101 99 99 101 101 101 102 102 104 104 103 103 103 104 108 112 111 111 113 109 106 103 99 97 98 100 101 101 100 99 97 95 94 93 91 89 88 88
101 101 101 101 101 100 101 102 101 100 102 101 101 101 100 98 99 100 99 101 102 103 105 105 106 107 107 105 107 111 112 111 111 108 106 103 100 99 101 101 101 101 101 101 101 99 98 98 96 93 90 86
99 100 101 101 101 100 100 100 100 100 100 100 100 101 100 98 99 97 96 97 97 98 101 101 102 104 103 102 105 108 107 107 107 106 104 101 99 99 98 97 94 92 91 90 90 90 91 93 93 92 90 86
96 96 97 99 100 101 101 101 101 101 101 102 101 101 101 101 101 99 99 99 97 99 99 98 100 100 101 101 102 104 102 100 99 98 96 93 90 89 89 89 88 85 83 81 80 80 81 82 82 82 83 81
94 95 97 100 101 101 102 103 102 101 102 102 101 102 103 103 102 101 102 101 101 105 101 101 103 101 104 105 101 104 104 98 95 92 90 90 89 89 91 93 94 92 89 86 83 80 78 76 75 75 75 74
99 97 98 98 98 100 103 103 103 103 102 102 101 100 101 101 101 101 103 101 102 106 102 104 107 103 105 106 101 101 99 93 90 89 91 95 97 99 102 103 103 101 97 94 91 87 84 81 79 77 76 75
90 95 99 100 99 98 98 98 101 102 103 105 104 101 101 102 101 100 101 102 102 104 103 103 104 103 104 103 100 99 95 93 92 93 97 102 105 107 108 106 103 101 98 95 93 90 87 84 82 80 78 76
68 77 85 92 97 100 101 101 103 102 102 105 104 102 103 103 102 101 100 100 100 100 101 100 100 102 102 99 100 101 99 99 99 100 102 105 107 105 101 98 94 93 91 90 89 86 86 85 84 82 80 79
51 57 63 70 77 84 91 97 100 102 105 107 105 104 105 105 104 101 97 96 94 92 93 95 97 98 99 98 100 102 100 100 100 100 99 97 96 93 91 91 90 89 89 90 90 89 91 93 92 91 91 88
38 40 44 48 54 60 66 73 79 85 90 94 97 100 102 103 103 100 97 96 95 93 95 98 99 98 100 101 100 101 101 99 98 97 96 95 95 94 95 95 93 92 92 94 95 96 98 99 99 100 99 96
42 39 38 37 38 41 44 48 53 58 63 68 73 78 82 86 88 89 90 92 93 94 96 98 97 96 98 98 96 98 98 97 97 98 98 99 100 100 101 101 98 97 98 100 100 98 99 99 100 100 98 95
50 47 45 42 40 39 37 38 38 40 42 45 48 52 56 60 64 67 70 74 76 79 81 82 83 84 84 84 84 85 86 87 88 89 91 91 92 93 93 94 93 93 94 94 93 91 91 91 90 89 87 86
54 52 51 49 47 46 45 44 43 41 39 37 37 37 38 40 42 44 47 50 53 55 58 60 63 64 65 67 67 68 69 70 70 71 72 72 73 73 74 74 74 75 75 75 74 73 73 73 72 72 70 69

ECMWFFLT2_250_rhum_126.txt.gz
RH
98 102 101 101 101 100 98 98 101 101 99 100 101 101 101 101 100 100 101 101 101 101 100 100 100 98 96 95 96 98 100 102 103 103 103 101 100 101 101 103 104 104 104 102 100 96 90 84 77 69 65 64
100 101 98 98 98 97 98 98 100 101 100 100 100 100 100 100 100 101 101 101 101 102 102 103 102 98 94 91 91 92 95 99 102 103 103 102 100 99 99 100 101 102 103 103 102 100 97 94 87 78 71 69
101 98 96 98 100 97 99 101 100 100 100 99 100 101 101 100 100 101 102 100 100 101 101 102 100 98 95 92 89 87 89 92 97 101 101 102 101 99 99 100 100 101 101 102 102 103 103 102 99 91 82 77
100 97 95 96 102 100 100 104 101 100 100 99 100 99 100 101 100 98 99 99 100 100 101 102 101 101 101 100 94 87 87 87 90 95 98 98 99 98 96 96 95 96 96 96 96 98 99 101 100 97 92 87
100 100 99 97 100 100 100 102 102 101 99 100 100 97 99 102 98 94 94 96 100 102 100 99 100 100 98 95 85 75 76 81 83 86 89 90 90 90 90 89 89 88 88 89 89 90 92 94 95 96 98 98
100 99 100 99 99 100 100 98 101 102 98 100 101 99 101 102 99 96 98 97 99 100 97 94 92 92 92 92 84 73 72 79 88 85 80 80 79 79 79 80 81 81 82 83 84 85 86 88 90 93 96 99
99 95 96 100 100 99 101 100 100 101 101 102 101 101 100 102 100 98 100 100 99 100 100 100 98 96 98 101 98 93 87 86 92 85 73 71 70 70 70 71 73 74 76 77 79 80 82 84 87 90 93 96
100 94 92 97 103 102 100 100 100 101 103 103 101 100 100 101 101 101 102 100 99 100 100 101 101 102 102 102 103 103 99 95 93 85 74 67 63 62 62 63 64 65 68 71 73 75 77 80 83 88 93 97
103 98 93 92 101 106 104 101 100 100 100 103 103 102 101 101 100 101 103 100 99 99 101 101 100 101 100 99 100 101 101 100 99 93 85 76 68 63 62 64 62 59 60 62 65 68 70 72 75 81 87 92
102 100 99 95 96 100 102 101 101 101 101 102 102 103 103 103 102 100 101 102 100 100 101 102 102 101 100 99 99 100 102 102 102 100 94 86 77 69 66 67 66 64 63 63 65 65 65 65 66 69 74 82
100 100 101 99 98 97 96 94 94 97 100 100 100 101 101 102 103 101 101 102 101 100 101 101 102 101 99 97 92 91 95 98 100 99 94 87 80 77 74 72 73 74 74 74 72 70 69 68 67 66 68 74
100 100 101 101 100 99 96 90 86 86 91 94 96 97 99 101 101 100 101 102 102 101 101 100 100 100 100 98 94 89 89 90 91 93 93 91 91 93 92 88 86 85 85 84 80 79 79 78 78 76 74 76
102 101 101 101 101 100 99 96 90 83 83 87 88 88 90 94 96 99 102 102 103 103 103 103 101 101 101 102 101 99 97 96 97 98 99 99 100 101 102 101 98 98 99 94 93 95 92 90 90 90 88 86
100 102 101 100 100 100 100 100 98 94 90 89 89 86 83 83 86 93 100 103 104 102 102 104 102 101 102 101 100 102 105 105 105 105 104 104 103 104 104 103 102 104 105 102 106 108 101 100 102 104 103 100
99 100 101 101 102 101 100 100 101 101 100 98 98 95 90 84 80 82 87 93 98 100 101 102 102 102 102 103 103 105 106 105 108 107 105 104 104 105 105 104 105 106 107 108 111 108 98 97 100 102 105 105
104 102 101 101 102 101 101 100 100 101 101 102 102 102 101 95 88 85 83 83 84 87 90 94 98 102 104 105 105 105 104 106 112 107 102 102 103 106 106 105 105 104 105 102 99 96 88 86 87 87 89 93
104 105 103 101 101 101 102 101 101 101 100 101 101 103 107 107 103 99 96 93 90 87 82 81 82 86 91 95 99 102 102 106 108 104 101 100 103 105 103 103 102 100 99 93 87 85 80 79 80 78 78 80
102 104 105 102 98 98 101 102 102 102 101 101 101 102 104 106 107 105 105 104 102 101 95 89 84 80 80 81 85 88 90 93 95 99 101 100 102 103 102 104 104 103 104 99 93 88 83 81 81 79 78 79
101 101 102 103 100 96 96 99 100 101 101 101 103 105 104 103 103 103 106 106 104 104 103 102 99 95 92 87 85 84 83 83 85 89 95 98 102 103 103 105 104 104 106 104 101 98 94 93 93 91 87 84
102 101 100 102 103 101 99 97 97 98 100 100 101 103 103 104 104 102 103 104 103 102 103 103 102 101 101 100 99 98 95 93 92 93 94 96 98 101 102 103 104 104 104 102 103 104 102 102 100 97 92 86
102 104 104 103 102 101 101 101 102 101 100 100 100 101 100 101 102 102 102 103 104 106 104 102 102 101 100 102 102 103 105 103 104 105 105 103 101 104 105 104 104 105 105 105 104 103 100 96 92 90 90 89
90 97 101 104 104 104 101 102 104 104 104 103 101 101 100 100 101 100 100 100 103 106 104 103 106 104 103 106 104 106 108 105 108 110 108 108 106 107 109 105 103 102 102 102 100 97 93 90 89 90 93 96
78 84 92 99 103 105 104 105 105 104 105 105 103 102 100 100 100 100 101 100 100 102 101 101 102 101 101 102 100 103 104 102 107 108 105 108 108 107 109 106 104 102 101 101 99 98 99 99 98 99 100 100
74 77 84 91 97 101 103 104 104 103 105 104 103 105 103 102 102 101 100 101 101 100 99 100 100 100 99 96 94 94 93 91 95 95 95 100 102 103 105 104 102 102 102 102 100 101 103 102 101 104 105 103
69 73 76 81 88 95 100 103 103 104 106 105 105 106 104 102 103 103 102 102 102 101 101 101 101 102 100 98 98 96 93 92 91 90 91 94 96 97 100 101 100 101 102 101 101 104 104 102 103 104 104 104
51 61 68 72 76 81 89 96 102 106 108 108 107 107 106 105 105 104 104 104 103 103 103 101 102 103 101 99 99 97 95 94 92 91 91 91 93 93 94 95 96 97 99 100 101 102 99 98 100 98 98 99
34 40 50 59 66 70 73 79 86 93 101 105 106 109 110 107 106 105 106 106 104 103 102 100 100 101 100 100 100 100 99 97 96 95 95 96 96 96 95 96 97 97 98 98 96 95 92 90 91 91 92 94
36 33 34 39 47 56 63 68 72 76 82 89 95 103 107 105 105 104 103 102 101 100 101 101 101 101 101 101 100 100 100 100 100 100 100 100 100 101 101 100 101 101 101 100 99 96 93 91 92 96 98 98
44 42 38 35 34 37 44 52 60 65 69 73 78 84 91 96 101 104 102 99 98 97 99 99 100 101 102 103 103 102 102 103 102 101 101 101 101 101 101 101 101 101 101 101 103 101 99 99 99 103 104 102
43 43 43 42 41 38 37 38 42 48 53 60 65 69 74 78 84 91 95 98 100 102 101 98 98 98 97 97 98 99 100 102 102 102 101 102 103 102 102 102 100 101 102 102 104 103 102 103 102 104 105 103
53 47 43 43 43 44 44 43 42 41 41 44 49 54 59 64 68 72 77 82 87 93 97 97 99 101 100 98 98 98 98 98 99 99 98 98 98 98 98 99 99 101 103 102 104 103 103 104 103 104 105 103

ECMWFFLT2_250_rhum_129.txt.gz
RH
85 87 79 84 95 94 102 107 99 97 102 101 102 103 102 100 100 100 100 100 100 100 102 105 104 99 100 102 100 101 102 102 101 101 100 101 100 100 102 102 104 104 103 101 99 97 94 92 88 86 83 81
94 92 84 86 98 100 98 103 104 101 99 98 103 106 103 101 100 101 100 100 98 98 101 101 100 99 100 101 101 101 102 102 101 100 100 100 101 101 101 101 102 102 103 103 102 102 102 101 99 97 95 93
104 102 92 88 95 101 98 101 101 98 96 93 98 102 101 102 102 102 101 100 99 100 101 100 101 100 100 100 100 101 102 103 101 100 100 101 101 101 102 103 102 101 102 101 101 101 101 102 102 102 100 98
107 109 101 94 95 101 100 101 100 99 100 94 94 99 99 100 100 101 102 101 100 100 99 100 100 99 99 100 99 100 101 103 104 101 100 100 101 101 102 103 103 103 103 102 102 102 101 101 102 103 102 101
104 109 107 100 99 101 101 102 101 99 102 100 95 100 101 96 97 99 98 99 100 99 99 99 99 98 99 100 100 100 100 103 103 101 99 101 106 105 103 105 108 108 106 104 103 102 103 105 105 105 104 104
102 106 108 103 103 102 102 105 103 98 99 103 98 98 101 96 98 101 98 99 100 100 100 100 100 100 101 100 100 100 100 101 102 101 97 96 103 107 107 109 111 110 108 108 105 104 105 104 105 108 107 106
101 102 106 105 103 100 101 104 104 101 98 102 101 96 99 100 99 101 101 100 100 100 101 100 100 103 103 101 100 100 100 101 101 101 95 92 94 99 102 103 104 104 105 106 106 107 106 104 106 108 109 108
102 99 103 105 104 101 100 102 103 101 96 98 102 97 98 102 101 100 101 101 100 100 100 101 100 102 103 101 101 101 100 101 100 99 98 96 96 97 100 101 102 102 99 99 100 101 102 105 109 108 108 107
101 100 99 102 106 103 100 100 102 101 95 93 99 99 97 99 100 100 100 100 100 100 100 100 100 101 101 101 101 100 100 101 100 100 100 100 101 101 101 102 103 103 99 93 91 92 92 94 97 99 101 101
97 101 99 100 105 105 102 100 100 101 99 94 96 98 98 98 99 100 101 101 100 100 101 100 100 100 100 100 100 100 100 100 100 100 101 101 102 102 101 101 99 102 101 89 79 78 78 78 78 81 86 91
92 98 100 101 102 102 103 102 101 101 100 98 97 97 99 99 96 96 95 98 103 100 99 100 100 100 100 99 102 103 101 101 101 101 101 98 99 100 100 99 92 89 87 78 71 67 66 67 69 73 76 79
93 94 97 100 101 100 103 104 103 101 100 101 101 98 100 100 98 98 91 90 99 102 103 104 101 100 100 100 102 103 99 94 94 99 100 96 97 100 100 99 94 88 82 76 71 66 63 63 66 71 73 72
100 95 93 98 101 100 101 102 102 102 101 100 101 100 101 101 102 103 99 93 95 101 105 104 103 102 101 101 100 101 99 89 88 97 99 96 99 100 99 100 100 100 97 92 86 81 78 76 74 72 71 67
105 102 95 95 100 101 100 100 101 103 102 98 99 101 99 100 101 101 103 101 98 102 104 102 105 105 103 103 101 100 102 97 96 100 99 99 100 99 100 101 100 101 101 100 99 98 96 95 93 85 78 72
103 106 102 96 96 98 100 101 100 100 101 99 99 101 100 99 100 100 101 102 101 101 101 102 105 104 101 103 102 100 101 102 101 101 101 101 100 100 101 103 100 99 100 101 102 103 103 102 99 94 87 80
102 103 105 103 98 95 97 100 102 100 100 101 100 101 102 101 101 101 100 101 101 100 100 102 102 101 101 102 101 101 100 102 103 101 100 100 103 103 101 103 101 97 98 101 102 101 101 100 97 93 89 83
106 106 107 106 104 100 96 96 101 101 100 100 100 100 101 101 103 103 101 100 99 100 100 101 101 102 104 102 100 103 101 100 103 102 101 101 104 103 100 102 101 99 99 100 102 96 91 91 89 88 86 84
105 107 109 109 108 105 100 97 98 100 100 100 100 100 100 100 101 104 104 101 98 99 100 100 101 102 104 102 100 104 103 101 101 101 101 101 101 101 101 102 100 100 100 100 101 98 96 95 92 92 93 92
100 105 106 108 110 108 105 101 99 99 100 101 100 100 99 99 100 101 103 103 102 101 101 101 102 102 103 103 99 99 100 100 101 102 103 102 101 102 100 100 101 100 100 101 101 100 102 102 100 102 101 100
83 96 102 107 109 109 108 104 102 101 101 101 101 100 99 99 99 99 101 103 103 103 103 104 103 102 102 102 100 97 95 94 97 100 101 101 101 103 101 101 101 100 101 101 102 101 101 102 103 103 101 102
64 77 90 101 105 106 107 107 105 103 102 101 102 101 100 100 100 100 100 100 101 102 103 104 103 102 102 102 101 100 96 94 95 96 96 97 97 99 102 103 101 102 103 101 102 103 102 103 104 102 101 104
59 61 69 82 94 101 105 106 105 105 105 103 101 102 104 104 101 100 100 100 100 100 100 102 101 102 104 103 103 103 98 95 96 95 95 96 96 96 99 104 105 104 105 102 101 102 102 103 103 103 104 105
64 61 58 61 72 86 98 103 103 104 107 105 101 100 103 106 104 101 102 100 100 100 99 101 100 101 102 101 103 105 102 101 100 98 97 97 96 92 91 95 98 98 98 99 99 100 100 101 102 104 104 103
60 65 64 59 57 62 76 90 97 100 103 104 105 103 102 103 102 103 103 101 100 101 101 101 100 101 101 100 101 102 102 103 103 103 101 101 100 97 93 91 89 87 87 87 88 88 89 89 90 92 93 94
44 52 61 65 63 59 58 64 77 87 95 100 103 104 104 103 101 101 103 101 101 101 101 102 101 101 101 100 101 101 101 101 101 102 101 101 102 102 101 100 98 95 92 90 88 86 84 82 81 82 85 87
35 37 44 52 61 66 65 60 59 65 75 87 95 99 101 100 99 102 103 102 102 102 102 103 104 104 103 101 101 101 101 101 102 102 101 101 101 101 102 102 103 102 100 100 99 98 96 93 93 94 95 96
37 36 35 38 43 51 60 66 67 63 61 66 76 86 95 98 100 101 102 101 101 101 102 102 103 104 102 100 101 102 101 101 101 101 101 100 101 102 101 100 101 101 100 101 102 101 101 100 101 101 100 101
47 42 38 36 37 38 43 50 59 66 68 68 67 69 75 84 92 98 100 98 96 95 94 95 99 103 103 101 101 102 104 104 103 103 102 101 101 101 100 100 101 101 101 102 102 101 102 101 102 102 101 103
58 54 49 43 39 39 39 40 42 48 56 66 71 71 69 69 72 79 88 93 95 97 94 91 95 98 99 101 102 103 105 105 105 107 107 103 102 102 101 102 102 102 102 102 102 102 102 100 102 104 101 101
62 60 58 55 49 45 43 43 43 42 42 47 55 63 70 72 69 68 71 76 83 91 93 95 98 97 96 96 96 98 102 102 103 107 108 106 104 103 101 101 101 101 101 101 100 100 99 97 97 98 94 93
69 65 62 59 58 55 51 48 47 47 45 44 43 46 51 60 67 70 72 72 71 73 77 84 89 92 97 96 93 95 97 98 100 102 104 105 104 102 103 104 102 101 103 102 100 100 100 98 97 97 96 95

ECMWFFLT2_250_rhum_132.txt.gz
RH
75 94 84 74 66 65 76 81 69 49 49 62 64 60 58 52 45 38 35 40 42 39 36 34 33 33 36 37 36 36 34 31 29 28 29 29 28 33 57 91 106 104 106 106 101 95 90 84 80 77 73 71
80 94 86 77 70 65 66 65 65 55 52 66 69 67 67 61 55 47 44 51 58 58 54 51 48 45 46 45 42 39 39 39 38 36 36 35 34 33 39 66 94 103 104 105 105 104 102 97 92 86 82 79
86 97 93 93 88 80 75 68 69 67 62 67 68 67 69 68 63 60 59 63 78 85 83 83 77 74 75 75 68 59 55 56 61 64 61 56 51 47 45 51 73 96 103 101 101 103 105 106 104 101 96 92
85 101 105 106 105 98 89 81 82 85 81 78 76 74 75 77 69 67 76 79 91 101 99 100 98 96 98 98 95 91 86 83 90 96 94 91 87 82 77 76 81 94 102 102 101 101 101 102 104 105 104 103
87 99 107 109 110 109 104 93 92 96 96 93 91 89 86 91 84 79 93 97 98 102 101 100 99 99 102 101 101 101 101 99 100 103 102 102 103 102 98 99 100 101 103 101 101 101 101 101 101 102 102 103
95 99 105 109 108 108 108 104 101 102 103 98 97 100 97 98 97 93 98 103 101 99 99 99 99 100 100 102 101 99 100 101 102 100 100 100 99 101 100 101 102 101 101 100 100 100 101 101 101 101 100 101
98 103 107 111 110 107 107 109 106 105 107 103 99 103 105 102 100 102 100 100 103 99 99 100 99 101 100 100 99 99 99 98 100 99 99 100 98 98 99 100 100 100 100 100 100 100 101 100 100 100 101 100
100 104 108 110 110 108 105 107 105 103 105 105 104 102 106 103 94 102 104 98 102 101 100 100 99 100 100 99 98 99 99 98 99 100 100 101 101 99 99 100 100 100 100 100 100 101 102 101 100 100 100 100
104 103 104 107 110 107 103 105 102 101 103 102 105 103 106 105 93 99 103 96 100 102 100 100 99 100 100 100 100 100 99 99 99 100 101 102 101 100 100 100 100 101 100 101 101 101 102 101 101 100 100 100
103 101 101 103 105 104 103 104 103 103 102 99 102 104 107 107 99 99 101 95 98 103 101 99 99 99 101 100 100 100 99 99 100 100 101 102 101 100 100 100 100 100 100 99 99 100 101 100 100 100 99 101
103 101 100 101 101 103 104 103 104 105 100 98 101 102 105 108 103 99 101 99 99 101 99 97 98 99 101 101 100 100 100 100 100 100 101 102 101 100 100 100 100 100 100 99 98 100 101 100 102 103 103 106
104 103 99 100 100 101 104 101 102 104 99 97 99 101 104 106 104 101 100 101 100 100 99 97 98 100 100 101 100 100 101 100 100 100 100 101 100 100 100 99 99 100 100 99 99 100 101 98 94 93 97 104
96 105 102 99 101 101 101 103 103 103 98 95 96 100 103 103 103 104 100 99 101 102 105 103 99 99 99 100 101 100 100 100 100 100 100 100 100 100 100 100 100 100 100 100 100 100 101 97 88 81 81 85
81 100 106 101 101 102 100 100 102 103 101 97 95 98 101 101 101 103 100 97 100 102 104 104 103 103 102 101 102 101 100 100 101 101 100 100 100 100 100 100 100 100 100 100 100 100 100 100 96 91 87 85
75 88 102 104 102 101 101 101 101 103 104 102 97 97 100 101 101 102 100 96 96 100 101 100 102 105 105 103 101 101 101 100 100 100 100 100 100 100 100 100 100 100 100 100 100 100 99 100 100 99 98 97
74 84 96 103 103 102 102 103 103 101 101 103 100 98 99 101 101 100 101 98 93 95 100 101 100 100 102 103 102 103 102 100 100 100 100 100 100 100 100 100 100 99 100 100 100 100 100 100 100 100 100 100
63 81 97 103 104 104 103 103 103 102 100 101 102 101 99 99 101 99 100 101 96 92 95 102 104 100 99 100 103 104 101 100 101 101 100 100 100 100 100 100 100 100 100 101 101 100 101 100 101 101 102 102
50 66 87 101 104 103 102 101 101 101 101 101 101 103 102 98 100 101 99 100 100 97 94 98 105 104 100 99 101 102 102 102 100 100 101 100 100 100 100 100 100 100 101 103 104 102 102 101 101 102 102 102
47 51 64 82 96 105 108 104 98 96 99 102 100 101 104 101 99 100 100 100 100 101 99 98 101 103 103 101 100 101 103 104 101 100 102 101 100 100 100 100 100 100 100 101 101 99 99 99 100 101 100 101
48 49 51 59 73 91 106 106 101 99 98 98 98 100 102 103 103 99 99 101 100 100 101 100 101 102 103 103 103 102 99 100 101 101 102 102 100 100 100 100 100 100 99 100 100 99 98 99 100 101 101 101
44 50 52 54 56 67 83 96 104 106 101 96 96 98 98 99 102 102 99 100 100 100 100 100 100 100 101 104 103 102 101 100 100 100 100 102 100 100 101 101 100 100 100 100 100 100 100 100 100 100 100 102
36 44 50 53 56 57 63 74 90 103 106 102 96 94 96 97 97 101 102 101 100 99 100 100 100 99 101 103 103 102 102 102 100 100 100 101 101 100 102 103 101 99 100 101 100 100 101 100 101 100 99 101
33 37 43 47 54 60 60 61 69 82 95 103 103 98 96 96 95 97 99 100 101 100 100 100 99 100 100 102 103 101 103 105 101 99 101 101 101 101 101 102 102 100 99 102 101 100 101 101 101 101 100 100
39 35 36 38 45 55 62 63 63 67 74 85 97 103 101 98 97 97 95 94 97 101 102 100 99 100 99 100 102 100 103 107 103 101 102 100 100 101 101 103 102 100 101 102 102 100 102 103 101 101 102 101
51 46 40 36 37 43 53 60 64 65 67 69 76 88 97 101 101 100 98 94 95 98 101 102 102 100 99 100 100 100 102 103 102 104 104 102 103 101 101 104 102 103 106 104 104 102 102 104 102 101 102 101
59 58 53 47 40 37 39 46 55 62 67 68 68 71 78 88 96 101 104 101 97 95 96 101 106 103 100 100 100 102 101 99 101 103 102 103 105 101 102 106 102 104 106 104 108 107 103 104 104 102 101 102
60 61 60 58 55 48 39 36 41 49 57 63 67 70 70 72 78 87 96 101 101 97 92 95 102 106 105 101 100 102 102 98 98 100 101 101 102 100 102 105 102 104 104 105 110 107 102 104 105 104 103 104
59 59 59 58 59 60 56 48 41 39 42 49 56 64 69 70 69 71 76 84 91 96 95 90 92 102 109 105 100 100 101 101 100 99 100 100 100 100 101 102 102 103 103 104 107 103 100 101 102 102 102 104
63 61 61 59 57 58 61 62 59 51 44 42 44 49 56 62 66 68 69 70 74 80 89 90 88 93 102 107 106 101 100 103 104 101 100 100 100 101 101 101 101 102 102 102 102 101 100 100 100 100 101 102
68 66 66 66 64 59 56 58 64 66 62 54 48 45 44 48 54 60 65 69 70 70 73 79 83 87 94 102 106 104 102 104 105 103 102 101 101 101 100 99 100 101 103 102 101 100 100 99 99 99 100 100
72 71 69 69 70 68 61 56 56 62 67 68 64 57 51 47 46 48 52 58 65 69 70 69 71 75 81 91 99 102 103 102 102 104 106 103 101 102 101 100 100 100 100 101 100 100 101 100 100 99 98 97

ECMWFFLT2_250_rhum_135.txt.gz
RH
25 25 31 52 65 76 91 96 95 100 102 96 98 101 101 100 99 101 100 97 80 70 75 67 64 62 54 46 38 36 34 35 32 23 19 17 16 15 14 12 12 13 13 15 18 25 37 51 64 73 80 85
27 35 37 41 43 46 64 76 71 74 84 82 81 86 88 95 99 100 101 99 89 83 87 78 65 60 53 43 38 35 30 35 42 36 29 26 22 19 18 16 15 14 13 13 15 18 23 35 52 71 86 92
35 47 48 44 44 41 46 54 60 64 68 61 60 71 76 85 97 100 100 97 90 83 85 80 65 55 51 43 39 39 33 34 44 45 38 33 29 26 23 20 19 17 16 15 16 19 20 23 32 51 78 98
45 50 45 43 50 53 55 55 62 72 75 69 61 65 68 71 82 97 102 94 88 78 68 66 59 49 47 45 42 44 41 37 43 47 45 42 38 35 32 28 24 22 21 20 20 22 23 24 25 32 52 82
48 52 50 52 55 62 75 75 73 75 80 81 74 72 69 62 57 71 91 93 92 88 73 63 57 49 48 47 47 50 49 47 46 48 49 46 44 42 43 41 36 32 30 29 28 28 28 27 29 31 39 61
45 55 61 67 69 75 87 94 93 90 91 93 90 89 88 85 70 56 67 80 89 96 86 73 67 61 55 52 54 57 59 62 60 57 55 48 44 43 46 48 47 44 41 39 38 35 34 33 36 39 43 58
37 49 61 69 78 89 98 103 105 102 102 103 103 102 99 101 96 74 63 68 80 97 100 91 86 81 73 67 67 70 68 74 80 80 76 67 59 55 52 50 51 52 51 51 51 52 54 54 53 54 56 64
37 41 53 66 75 89 101 105 106 104 102 103 104 104 103 104 106 96 81 75 77 91 104 104 102 100 97 85 76 84 87 88 95 97 96 91 86 83 77 69 62 61 67 75 82 85 88 86 82 82 82 80
43 38 42 57 71 85 99 104 103 103 101 100 101 101 101 101 106 107 98 94 91 94 102 103 106 107 108 101 87 93 101 99 100 99 98 99 99 99 97 94 88 80 81 90 97 100 100 99 99 100 101 98
42 41 38 46 62 80 97 104 103 102 101 100 100 100 102 101 102 105 102 103 105 106 106 103 107 107 105 107 100 98 100 98 101 99 98 99 100 103 102 100 101 98 93 90 87 91 99 101 99 99 101 103
38 44 48 52 56 68 86 100 103 100 100 100 100 100 102 102 101 102 102 104 106 109 112 108 110 108 102 105 105 102 100 99 101 99 99 100 99 102 104 100 99 101 102 98 88 83 91 98 99 99 98 100
36 43 52 60 62 61 70 88 101 102 100 99 101 101 101 101 100 100 102 102 103 108 112 109 110 109 103 103 104 103 101 100 101 99 98 99 99 100 101 101 99 99 100 103 100 93 91 96 100 101 96 96
32 38 47 59 70 71 67 76 92 100 101 100 100 101 101 101 101 100 100 101 101 104 106 103 104 107 106 104 102 102 101 100 101 100 99 98 99 101 100 100 100 100 100 100 102 101 100 99 98 100 97 96
30 34 41 52 66 76 76 78 89 99 99 98 100 101 100 101 101 99 99 101 101 100 102 101 99 101 106 106 101 101 103 100 100 100 99 99 100 100 100 100 100 101 101 100 100 100 101 101 98 100 101 100
32 35 39 45 55 70 78 80 91 104 102 97 99 101 99 98 100 101 99 100 101 100 99 101 100 98 103 107 101 100 104 101 100 101 100 100 101 100 100 101 100 99 100 100 100 99 100 101 100 101 100 100
35 36 40 43 48 61 73 78 88 102 109 106 100 97 96 95 96 99 100 100 100 100 100 100 101 99 100 105 102 97 100 102 100 100 101 100 100 100 101 102 100 99 100 99 100 100 100 101 101 101 100 100
37 37 40 44 47 52 62 74 85 92 99 106 105 99 92 89 89 91 96 101 101 99 100 100 101 101 98 102 105 97 92 98 101 100 100 101 100 100 100 101 101 100 100 100 100 100 100 100 101 101 101 101
38 38 38 41 47 51 55 63 77 86 89 96 106 109 100 89 84 84 89 96 101 100 100 100 99 100 99 95 100 102 94 91 99 103 101 100 100 100 100 100 100 101 100 100 100 100 100 99 99 100 100 101
43 41 39 38 42 49 56 59 65 76 84 90 99 108 108 99 92 87 86 90 98 100 99 101 99 98 100 94 91 99 103 95 95 100 100 100 100 99 100 100 100 100 100 101 101 100 100 99 100 100 100 100
49 47 43 40 38 41 50 59 64 69 75 84 94 105 108 106 105 98 91 90 95 101 101 101 101 99 100 99 92 91 100 103 99 99 99 100 101 100 99 100 99 100 101 101 100 100 100 100 100 100 100 100
49 53 50 46 41 38 40 48 59 67 72 75 83 98 106 109 109 102 99 99 95 100 105 104 102 100 99 102 100 92 93 102 105 103 101 99 100 101 99 100 100 99 100 101 100 100 100 100 100 100 100 100
45 50 54 54 50 44 39 38 44 56 68 73 76 84 95 106 108 101 104 106 98 98 104 107 105 102 100 100 102 100 97 98 102 105 104 100 100 100 100 100 101 100 100 101 101 100 100 100 100 100 100 100
51 48 50 55 59 55 47 41 38 41 51 64 73 77 81 92 102 105 107 104 101 102 100 102 105 104 105 102 99 101 101 100 100 101 103 103 101 100 101 101 101 101 100 101 101 100 100 101 100 100 100 100
61 56 51 50 55 60 59 52 45 39 39 45 57 69 74 79 89 101 108 105 102 100 96 98 101 101 105 104 100 100 100 100 101 100 100 103 102 101 102 101 102 102 101 101 102 100 101 102 100 100 100 100
65 65 61 55 53 55 59 61 57 50 43 38 40 49 60 70 77 85 96 104 106 100 95 96 96 98 103 104 100 100 101 100 100 101 100 100 102 104 104 102 102 102 101 100 101 102 102 101 100 100 100 100
67 66 65 63 60 57 56 58 60 60 57 49 41 38 43 52 63 72 80 89 100 103 100 96 90 89 94 100 101 103 104 101 99 101 101 99 100 102 104 103 101 100 101 100 101 103 101 100 100 100 100 100
67 67 66 65 64 63 61 59 57 59 63 64 57 47 40 40 45 55 66 73 82 90 96 97 93 89 84 86 96 104 106 104 100 100 101 100 100 100 101 103 102 102 104 102 100 101 100 100 101 101 100 100
68 68 68 66 65 64 64 63 61 58 60 64 67 63 55 46 40 41 48 58 68 75 82 87 92 96 89 82 85 93 101 107 104 101 101 100 100 100 100 101 101 103 105 101 99 100 101 101 100 100 100 100
71 71 71 70 69 68 66 65 64 63 61 61 64 68 68 62 53 46 41 43 50 60 69 75 81 88 90 89 85 83 89 101 105 104 102 101 100 99 100 101 99 100 102 101 100 102 102 101 100 101 101 100
70 73 74 74 73 72 72 69 66 64 64 64 63 64 69 72 69 62 55 47 43 45 52 61 70 77 80 83 83 81 81 87 97 105 106 102 100 100 100 100 100 99 100 100 101 101 101 101 100 102 102 100
67 70 72 75 76 76 76 75 73 69 65 65 65 64 65 70 74 73 70 65 57 49 45 46 52 62 71 76 78 78 76 74 81 95 104 103 102 104 102 100 100 100 99 100 101 100 100 102 100 100 102 101

ECMWFFLT2_250_rhum_138.txt.gz
RH
17 26 36 77 102 96 97 102 101 101 104 101 100 100 98 97 94 94 99 100 101 102 101 99 90 86 82 69 69 76 78 71 55 43 36 25 14 12 13 11 10 10 9 9 10 10 12 13 15 18 21 25
20 42 49 65 91 97 94 96 100 100 102 101 99 101 101 100 91 82 88 95 98 99 101 101 93 87 87 80 73 75 80 79 65 52 51 46 32 20 15 14 11 9 10 9 9 10 11 12 14 16 17 20
19 30 48 57 69 79 75 78 90 91 93 100 100 99 100 101 96 84 79 81 84 90 97 102 99 90 86 84 75 71 75 78 71 59 56 58 54 41 24 18 17 13 10 10 10 11 11 11 12 14 16 17
30 24 38 47 47 60 67 72 79 77 80 95 102 100 98 100 104 99 87 79 74 77 88 98 100 95 92 90 78 67 68 75 80 71 62 61 62 58 44 30 27 24 17 12 11 13 14 13 13 13 13 15
30 29 41 48 38 41 55 66 69 70 83 98 101 99 99 100 102 103 99 95 86 76 75 83 94 98 98 96 88 70 56 66 87 88 74 68 64 61 61 51 40 37 32 24 18 17 18 17 16 15 14 14
23 26 41 52 44 35 37 46 50 58 84 104 105 101 101 104 102 101 103 104 100 92 81 77 81 89 94 95 94 79 55 53 73 86 78 71 67 60 60 58 49 44 43 41 35 27 24 22 21 19 18 17
23 23 32 44 47 42 35 36 38 41 60 84 102 106 103 103 102 101 103 101 102 104 100 92 82 79 82 84 86 79 62 56 64 76 76 69 69 66 58 50 45 40 40 44 46 41 35 31 27 25 23 21
21 23 29 39 46 44 36 35 40 42 42 53 78 98 103 103 103 102 101 100 101 103 103 102 95 87 85 80 77 75 66 66 75 82 87 82 74 74 67 53 42 35 33 37 43 47 48 44 37 32 30 27
19 22 27 34 40 41 38 39 42 43 41 43 63 81 90 98 103 103 100 101 101 100 101 102 101 101 104 97 89 89 83 79 84 86 94 99 87 77 70 60 49 40 36 37 40 47 55 56 50 43 40 37
17 21 24 29 35 37 39 41 42 40 37 40 58 76 83 89 97 102 102 103 102 101 102 101 101 103 106 108 102 101 101 96 92 88 92 100 94 82 74 66 57 50 46 46 47 51 60 66 65 59 51 47
17 20 23 27 33 37 38 41 43 41 38 37 49 72 87 89 89 95 102 103 102 103 103 100 104 105 103 106 105 102 104 105 103 100 100 100 96 90 84 75 65 60 57 57 60 63 69 78 84 83 74 64
20 20 22 27 32 36 35 37 43 42 43 43 43 55 76 88 88 90 100 105 103 103 104 103 104 105 102 103 108 109 106 108 110 108 105 103 101 98 90 84 76 68 64 63 68 75 78 84 91 94 90 79
22 22 22 25 30 36 37 36 40 41 42 44 44 48 60 75 84 86 92 99 99 98 100 102 102 102 99 97 104 111 106 105 110 109 107 105 105 101 92 94 93 77 69 66 68 78 83 86 91 96 95 89
24 25 25 26 27 33 41 42 40 40 43 45 48 59 69 76 83 84 86 90 91 90 94 100 103 104 100 95 96 104 103 103 108 108 107 107 107 103 94 98 105 91 78 75 76 81 84 87 96 102 101 99
26 26 29 31 30 29 37 45 46 43 44 48 54 67 82 90 94 95 93 91 86 80 83 92 102 107 103 95 91 95 100 103 106 105 104 104 106 107 99 98 106 100 87 85 91 94 91 90 96 101 100 101
30 28 29 32 35 34 33 38 48 52 51 53 57 63 78 90 98 105 105 101 92 78 69 74 89 101 103 97 88 85 92 101 104 103 103 102 103 108 106 100 102 102 95 93 97 100 99 98 99 101 100 98
34 32 30 31 35 39 39 37 41 49 55 60 61 63 75 87 95 104 109 109 103 88 69 65 74 88 97 98 92 84 83 91 100 105 107 103 101 108 109 102 100 102 102 99 98 100 101 100 100 100 99 95
36 37 35 33 33 36 40 42 41 43 48 55 62 67 74 84 94 103 107 105 106 101 85 73 74 82 93 99 98 94 86 85 93 104 111 107 100 104 107 103 100 101 104 104 100 99 101 100 99 99 99 96
36 38 38 37 35 35 37 42 45 44 44 47 54 64 70 78 92 102 103 101 104 108 99 88 85 86 93 101 104 102 96 89 87 92 104 110 103 99 100 104 105 100 102 106 103 100 99 101 99 97 99 100
40 39 40 41 41 39 37 38 42 46 47 47 49 56 62 68 82 96 100 100 101 103 103 100 96 93 94 101 105 103 101 99 92 86 90 100 104 101 97 100 105 103 101 103 105 103 100 100 100 98 99 100
48 44 43 45 46 45 43 39 40 43 47 49 48 51 56 59 68 82 92 97 102 103 104 103 99 97 96 100 103 103 102 102 101 96 89 89 96 103 104 100 99 104 103 100 102 102 100 100 99 99 101 99
56 52 49 48 49 49 49 47 43 42 43 47 48 49 52 56 60 65 72 84 98 104 104 103 101 100 100 100 103 106 104 100 100 102 99 93 91 95 103 101 98 101 101 101 102 100 99 101 101 100 101 99
61 60 57 55 53 52 51 52 52 49 45 45 47 49 49 51 54 58 63 71 82 93 98 102 103 102 99 97 101 106 106 103 100 100 102 103 97 92 94 97 99 100 101 103 103 99 98 101 103 101 100 99
63 63 63 61 60 58 55 53 55 56 54 49 47 49 49 49 49 52 59 65 71 78 85 95 102 105 102 93 92 100 105 107 105 101 101 103 101 98 95 95 96 95 98 101 101 101 101 100 100 101 100 100
63 64 65 65 64 64 63 60 57 58 59 58 55 52 50 50 50 50 51 56 63 70 76 83 90 99 106 100 93 96 101 104 106 106 105 101 99 100 100 98 96 92 90 95 102 103 102 101 99 101 103 102
62 62 63 64 65 65 67 67 66 64 62 61 61 60 56 53 53 52 52 50 52 59 67 74 79 86 96 100 98 99 101 98 99 104 107 103 100 100 100 99 99 96 91 91 99 102 101 102 101 102 102 102
66 61 60 61 63 64 66 68 69 70 70 67 65 64 62 59 58 57 56 55 51 50 54 60 71 79 85 90 93 98 101 96 93 97 102 102 100 101 101 100 99 99 99 95 94 98 102 102 101 102 102 101
76 70 63 59 60 62 64 66 67 68 72 73 72 70 66 62 62 62 60 60 58 55 52 50 54 64 75 84 88 92 95 95 95 98 101 100 100 102 103 101 100 100 101 100 96 96 100 102 100 100 103 102
70 74 72 66 61 60 62 63 64 65 68 72 74 75 74 68 63 64 64 63 63 61 59 55 50 50 56 68 79 86 90 91 92 95 96 96 97 101 102 101 101 102 100 99 100 98 96 100 102 101 102 103
58 64 68 69 67 64 63 62 62 63 64 67 70 73 76 75 70 67 67 67 67 65 62 61 58 54 50 51 58 70 81 88 90 89 89 90 92 94 98 100 101 103 101 98 99 99 96 96 101 104 103 100
58 58 60 63 66 66 65 64 64 63 63 64 66 68 72 75 75 73 72 70 70 69 66 63 62 61 59 54 50 52 60 72 83 89 89 86 84 83 86 93 99 105 105 100 99 98 98 98 99 102 102 101

ECMWFFLT2_250_rhum_141.txt.gz
RH
9 9 10 10 13 19 26 42 65 73 78 94 100 99 101 100 101 103 102 101 101 101 100 102 96 87 90 93 90 90 95 91 82 81 75 58 42 33 26 21 15 11 11 11 11 11 11 10 9 9 10 12
9 10 9 9 13 14 21 36 61 84 88 97 102 99 101 100 101 101 98 100 101 100 100 101 100 99 96 87 82 80 81 84 88 95 97 82 65 54 42 33 28 20 16 13 12 13 13 12 10 9 9 10
8 10 10 10 14 16 36 43 50 89 102 100 103 100 101 100 102 102 98 99 100 101 101 102 100 100 100 95 94 90 74 63 72 92 105 100 86 77 66 51 41 33 29 23 16 14 15 14 12 11 10 9
10 12 11 11 17 25 57 66 55 85 103 101 102 100 101 100 102 102 99 99 99 102 101 101 101 100 101 100 101 101 85 59 51 65 84 97 92 87 86 77 63 47 39 36 30 21 17 16 16 13 12 11
10 13 12 11 19 22 44 64 63 77 94 105 105 98 101 100 101 101 98 99 99 103 103 101 102 100 98 100 103 101 96 79 60 50 55 75 81 78 84 89 87 73 55 43 39 35 26 21 19 18 16 13
12 13 15 13 16 18 28 45 51 57 75 96 95 91 102 101 98 97 98 100 100 103 103 102 102 102 97 96 100 99 100 98 88 67 50 53 61 66 72 80 89 91 84 65 49 43 40 34 27 23 21 17
13 14 15 15 15 16 22 30 33 39 56 79 85 84 92 94 90 92 100 102 100 102 102 102 101 102 105 101 97 97 98 99 101 93 71 51 48 60 67 70 73 78 91 94 80 62 51 47 40 33 26 21
14 15 16 16 16 15 18 23 29 35 44 63 82 86 81 79 77 80 94 101 99 101 101 102 101 100 106 108 103 100 99 96 95 99 95 72 54 58 63 64 64 61 68 85 98 91 75 61 53 49 41 33
14 15 17 17 16 16 17 21 26 35 42 50 64 76 79 78 73 68 77 93 100 100 100 101 102 100 101 105 106 104 101 99 96 96 100 90 73 70 69 63 61 59 56 59 74 88 90 80 67 63 60 54
16 16 18 19 18 17 17 20 23 29 39 47 54 63 74 77 72 62 61 79 98 101 101 100 100 101 99 101 104 105 103 102 102 101 101 96 88 85 83 75 64 61 59 55 59 68 77 81 79 75 74 72
18 18 19 20 21 20 18 19 23 27 33 43 55 64 74 77 68 56 52 64 85 98 101 98 97 100 101 100 101 103 104 103 102 102 102 102 100 95 93 91 80 68 62 57 60 65 66 68 74 83 87 86
19 19 21 22 22 23 21 20 22 28 33 36 44 53 65 77 75 63 54 53 65 83 96 96 91 93 100 101 101 101 101 100 100 103 105 106 110 105 99 99 93 83 73 62 59 65 70 68 66 73 84 89
21 20 22 23 24 25 24 24 23 25 31 33 35 41 48 62 72 68 60 55 57 68 83 95 92 84 91 99 101 102 100 98 98 103 107 106 109 110 105 103 99 92 84 73 64 60 65 72 69 65 71 77
22 23 23 24 26 27 27 26 26 26 29 32 36 44 49 53 59 59 59 60 60 62 70 84 92 87 85 92 98 101 101 100 99 100 103 103 105 107 106 105 104 101 96 87 78 72 69 72 74 71 71 75
23 24 25 25 26 29 31 30 29 29 29 32 36 45 54 60 61 58 62 66 65 66 67 70 81 89 88 88 91 97 101 101 101 100 100 102 103 103 103 103 105 107 107 101 96 96 93 89 89 88 85 85
26 25 25 26 28 29 32 34 33 32 31 32 33 37 46 58 64 63 64 70 69 70 71 66 68 81 93 96 94 93 95 98 100 101 101 101 101 101 101 102 103 104 106 105 101 103 106 104 104 102 99 97
30 28 26 26 28 30 32 34 36 36 36 35 35 34 37 44 52 55 56 61 63 65 71 69 64 68 80 94 100 97 94 92 92 95 98 101 101 101 101 101 101 101 102 103 101 100 103 104 103 103 103 108
32 32 31 29 27 30 33 34 35 38 39 38 38 37 37 39 41 43 46 54 62 67 73 79 77 70 66 71 81 88 91 91 90 88 89 94 99 100 101 102 101 101 100 101 101 101 101 101 102 102 103 109
34 33 34 34 31 30 33 34 35 37 40 41 42 41 40 39 40 40 41 48 62 71 76 83 86 80 73 66 63 66 71 78 87 91 91 93 97 99 100 101 100 101 102 101 100 100 100 102 105 102 101 106
39 37 36 36 35 33 34 35 36 36 38 40 42 44 44 41 41 42 42 44 53 64 71 76 82 84 81 73 63 57 55 58 69 82 92 97 99 100 101 101 99 98 99 101 103 105 102 101 105 102 100 104
43 42 41 40 39 37 37 37 39 39 38 39 41 44 47 46 45 44 43 44 46 53 63 69 75 82 86 81 71 61 55 54 58 65 80 95 102 103 104 104 103 100 97 96 100 106 104 101 104 102 100 102
46 45 45 46 45 42 40 40 41 44 44 42 42 44 46 49 50 49 46 46 45 46 53 61 67 73 78 83 83 75 66 62 61 61 66 80 96 105 107 106 106 106 103 98 96 100 103 103 104 101 100 101
53 49 48 49 50 49 45 42 41 45 49 48 48 47 47 48 51 52 51 50 49 47 48 52 58 62 67 78 89 91 86 78 71 65 63 67 79 94 106 109 106 105 108 105 100 100 103 104 104 102 100 100
69 62 56 53 52 53 53 50 44 43 47 51 55 55 52 51 51 53 55 54 52 51 51 50 51 55 63 74 84 90 93 91 85 75 69 66 66 74 90 106 110 107 106 106 105 107 109 107 106 105 101 101
77 76 72 66 60 57 56 58 55 49 47 47 52 58 59 58 56 54 55 56 56 54 53 52 52 53 58 66 72 78 82 88 90 84 77 73 71 70 75 92 106 111 109 103 104 109 110 108 109 108 103 104
65 72 76 75 72 67 61 61 63 60 54 49 47 52 59 63 62 59 56 57 58 58 56 54 54 55 56 59 63 69 74 79 83 83 80 79 81 80 76 80 92 104 109 104 104 106 102 98 102 107 108 106
54 58 63 67 71 72 68 65 65 66 63 58 51 49 53 58 63 64 62 59 58 58 59 58 57 56 57 57 58 61 65 71 76 80 83 82 84 83 77 77 81 90 99 102 104 105 99 94 92 96 104 108
50 52 53 56 59 63 66 67 66 67 67 64 59 56 55 55 57 63 66 66 62 59 60 62 62 60 60 60 60 59 59 61 65 71 78 81 83 83 79 77 78 80 85 91 100 104 103 100 95 91 96 105
48 51 52 53 54 56 59 62 64 66 66 66 65 63 63 61 58 58 62 67 69 67 63 63 64 65 65 63 63 63 61 59 58 59 64 70 76 82 86 83 77 74 75 78 84 93 101 104 102 98 96 97
51 52 54 54 56 56 57 58 62 64 64 65 68 68 70 72 67 62 60 62 68 72 71 68 66 65 67 67 67 67 66 64 62 59 58 59 63 71 81 83 77 72 73 74 72 75 88 101 105 103 101 98
51 52 53 55 57 58 59 61 63 64 64 65 68 70 72 76 77 73 67 63 64 68 74 76 74 70 67 69 72 73 70 67 66 65 63 60 59 59 64 72 75 73 74 76 74 70 73 87 101 104 103 102